     2              OBSERVATION DATA    GPS                 RINEX VERSION / TYPE
teqc 1999Jul19 19991123 03:11:48UTC                         PGM / RUN BY / DATE
                                                            COMMENT
Original Marker Name: 1004                                  COMMENT
Campaign Name: HPGN 1991                                    COMMENT
4-Character Station Name: 1004                              COMMENT
6-Character Antenna Code: TRMSST                            COMMENT
Vertical Measurement Point: BPA                             COMMENT
Vertical Offset to Rinex Ref. Point: 0.0000                 COMMENT
Radial Measurement Point: RRP                               COMMENT
Radial Offset to Rinex Ref. Point: 0.0000                   COMMENT
Antenna Height from Field Measurement: 2.2200 m             COMMENT
                                                            COMMENT
Original XYZ: -2624124.4996 -4336735.2956 3858452.9640      COMMENT
New XYZ position is based on association with SCEC monument COMMENT
E1F6Z2X0+0011. Position of that monument is believed to be  COMMENT
valid to within 1 m horizontally; vertical accuracy         COMMENT
should be no worse than 3-times this value.                 COMMENT
                                                            COMMENT
Revised Rinex header created by UCSD GPS archive for        COMMENT
GSAC on 10-Mar-2000 (2000:070) 17:25:06 GMT                 COMMENT
For assistance contact dagnew@ucsd.edu or hjohnson@ucsd.edu COMMENT
                                                            COMMENT
HPGN CA 10 04                                               MARKER NAME
1004                                                        MARKER NUMBER
-Unknown- CALIF DEPT TRANSPORTATION                         OBSERVER / AGENCY
486 TRIMBLE 4000 SST NP 4.30 / SP 4.20                      REC # / TYPE / VERS
17 TR 4000SST L1/L2 GEO                                     ANT # / TYPE
 -2624129.5348 -4336726.0633  3858439.8817                  APPROX POSITION XYZ
        2.2200        0.0000        0.0000                  ANTENNA: DELTA H/E/N
     1     1     0                                          WAVELENGTH FACT L1/2
     5    C1    L1    L2    S1    S2                        # / TYPES OF OBSERV
     0                                                      INTERVAL
  1991     5    20    22    29   45.000000                  TIME OF FIRST OBS
  1991     5    20    23    55   60.000000                  TIME OF LAST OBS
                                                            END OF HEADER
 91  5 20 22 29 45.0000000  0  3G 2G13G 6
  21742027.383          -0.48718        -0.06232        29.000           2.250
  20750344.430          -0.97117        -0.40632        25.000           1.563
  20962516.938          -0.48117        -0.06332        20.750           2.375
 91  5 20 22 30  0.0000000  0  3G 2G13G 6
  21743817.422        9403.661 8      7327.82422        28.750           2.250
  20743523.641      -35846.265 7    -27931.76221        25.000           1.344
  20963036.961        2740.766 7      2135.95822        20.750           2.313
 91  5 20 22 30 15.0000000  0  3G 2G13G 6
  21745617.383       18858.214 8     14694.98722        29.000           2.281
  20736729.273      -71547.297 7    -55750.71321        25.500           1.469
  20963584.625        5605.183 7      4367.95822        20.750           2.250
 91  5 20 22 30 30.0000000  0  3G 2G13G 6
  21747425.273       28359.618 8     22098.65922        28.250           2.125
  20729963.484     -107107.444 7    -83459.88321        26.000           1.438
  20964153.672        8589.239 7      6693.18122        20.750           2.344
 91  5 20 22 30 45.0000000  0  3G 2G13G 6
  21749241.508       37907.465 8     29538.52222        28.500           2.125
  20723221.969     -142527.127 7   -111059.59321        25.250           1.438
  20964742.531       11692.601 7      9111.37422        21.000           2.281
 91  5 20 22 31  0.0000000  0  3G 2G13G 6
  21751069.859       47511.564 8     37022.21422        28.500           2.313
  20716510.734     -177796.385 7   -138542.09721        25.250           1.406
  20965356.375       14925.276 7     11630.33022        20.750           2.281
 91  5 20 22 31 15.0000000  0  3G 2G13G 6
  21752908.313       57164.281 8     44543.79022        28.750           2.188
  20709827.203     -212922.852 7   -165913.33622        25.500           1.500
  20965994.570       18279.520 7     14244.00922        20.750           2.281
 91  5 20 22 31 30.0000000  0  3G 2G13G 6
  21754754.469       66867.599 8     52104.79422        28.500           2.125
  20703170.820     -247904.136 7   -193171.44122        25.750           1.531
  20966656.563       21757.624 7     16954.20422        20.750           2.375
 91  5 20 22 31 45.0000000  0  3G 2G13G 6
  21756609.883       76625.365 8     59708.22422        28.250           2.188
  20696541.422     -282736.622 7   -220313.60621        25.500           1.406
  20967342.398       25363.242 7     19763.76022        21.000           2.281
 91  5 20 22 32  0.0000000  0  3G 2G13G 6
  21758477.195       86437.546 7     67354.05422        27.750           2.281
  20689942.344     -317420.139 7   -247339.68521        25.750           1.438
  20968052.297       29096.528 7     22672.79922        20.750           2.344
 91  5 20 22 32 15.0000000  0  3G 2G13G 6
  21760355.063       96306.346 7     75044.00822        27.500           2.250
  20683370.344     -351952.633 7   -274248.08721        26.000           1.375
  20968788.070       32959.773 7     25683.10622        20.750           2.281
 91  5 20 22 32 30.0000000  0  3G 2G13G 6
  21762242.164      106225.837 7     82773.45622        27.500           2.156
  20676826.414     -386339.912 7   -301043.33321        25.750           1.438
  20969549.461       36946.945 7     28789.97222        21.000           2.375
 91  5 20 22 32 45.0000000  0  3G 2G13G 6
  21764138.461      116197.109 7     90543.25922        27.250           2.250
  20670311.484     -420580.753 7   -327724.48121        25.750           1.375
  20970333.219       41059.144 7     31994.27122        21.000           2.250
 91  5 20 22 33  0.0000000  0  3G 2G13G 6
  21766047.164      126219.897 8     98353.19922        28.000           2.125
  20663822.484     -454674.950 7   -354291.35521        25.500           1.438
  20971138.531       45296.338 7     35295.96722        21.000           2.344
 91  5 20 22 33 15.0000000  0  3G 2G13G 6
  21767965.945      136297.622 7    106205.94922        27.500           2.250
  20657362.430     -488619.328 7   -380741.48521        25.750           1.313
  20971966.313       49662.001 7     38697.76722        21.000           2.250
 91  5 20 22 33 30.0000000  0  3G 2G13G 6
  21769891.055      146423.990 7    114096.60022        27.500           2.219
  20650931.984     -522420.102 7   -407079.71721        26.000           1.469
  20972822.953       54149.836 7     42194.76522        20.500           2.344
 91  5 20 22 33 45.0000000  0  3G 2G13G 6
  21771827.367      156591.526 8    122019.33522        28.000           2.156
  20644523.766     -556084.807 7   -433311.92222        25.250           1.500
  20973697.344       58752.584 7     45781.30222        20.750           2.375
 91  5 20 22 34  0.0000000  0  3G 2G13G 6
  21773770.172      166799.988 7    129973.95822        27.500           2.281
  20638144.070     -589613.403 7   -459438.07121        25.750           1.375
  20974594.797       63469.767 7     49457.01622        20.750           2.250
 91  5 20 22 34 15.0000000  0  3G 2G13G 6
  21775720.633      177059.151 7    137968.09122        27.250           2.188
  20631792.844     -622996.163 7   -485450.57421        26.500           1.406
  20975518.070       68311.425 7     53229.71622        21.250           2.344
 91  5 20 22 34 30.0000000  0  3G 2G13G 6
  21777682.734      187363.997 7    145997.81822        27.250           2.281
  20625467.008     -656237.953 7   -511353.23421        26.500           1.313
  20976460.070       73272.428 7     57095.41122        20.750           2.313
 91  5 20 22 34 45.0000000  0  3G 2G13G 6
  21779653.508      197715.529 7    154063.92122        27.750           2.344
  20619167.422     -689337.676 7   -537145.19921        26.000           1.313
  20977428.273       78353.833 7     61054.93422        21.250           2.344
 91  5 20 22 35  0.0000000  0  3G 2G13G 6
  21781628.563      208105.060 7    162159.63922        27.750           2.250
  20612893.617     -722304.231 7   -562833.39021        25.750           1.438
  20978418.555       83547.024 7     65101.55522        21.250           2.344
 91  5 20 22 35 15.0000000  0  3G 2G13G 6
  21783616.000      218537.452 7    170288.75622        27.500           2.250
  20606648.914     -755132.539 7   -588413.85821        26.750           1.344
  20979424.742       88856.963 7     69239.15522        20.750           2.344
 91  5 20 22 35 30.0000000  0  3G 2G13G 6
  21785610.445      229020.884 7    178457.64422        27.500           2.219
  20600428.961     -787814.385 7   -613880.19821        26.500           1.344
  20980460.031       94291.869 7     73474.13222        21.000           2.438
 91  5 20 22 35 45.0000000  0  3G 2G13G 6
  21787611.859      239547.043 7    186659.82422        27.000           2.188
  20594235.219     -820358.173 7   -639238.95921        26.250           1.438
  20981519.438       99843.253 7     77799.87122        21.250           2.375
 91  5 20 22 36  0.0000000  0  3G 2G13G 6
  21789624.438      250123.972 7    194901.56522        27.250           2.219
  20588071.086     -852755.753 7   -664483.79621        26.500           1.313
  20982597.820      105519.361 7     82222.79322        20.750           2.375
 91  5 20 22 36 15.0000000  0  3G 2G13G 6
  21791646.000      260742.551 7    203175.76622        27.000           2.250
  20581931.023     -885016.172 7   -689621.75321        26.500           1.313
  20983699.500      111311.108 7     86735.82522        21.000           2.313
 91  5 20 22 36 30.0000000  0  3G 2G13G 6
  21793674.273      271397.502 7    211478.29822        26.750           2.156
  20575817.727     -917144.550 7   -714656.82021        26.250           1.344
  20984821.859      117213.349 7     91334.95822        21.250           2.313
 91  5 20 22 36 45.0000000  0  3G 2G13G 6
  21795708.719      282088.786 7    219809.14822        26.750           2.188
  20569727.805     -949140.848 7   -739588.96521        25.250           1.375
  20985966.070      123226.037 7     96020.14922        21.250           2.344
 91  5 20 22 37  0.0000000  0  3G 2G13G 6
  21797752.320      292830.795 7    228179.51822        26.750           2.188
  20563667.445     -980990.899 7   -764407.16121        25.500           1.281
  20987133.805      129363.573 7    100802.62922        21.000           2.281
 91  5 20 22 37 15.0000000  0  3G 2G13G 6
  21799803.750      303617.030 7    236584.35622        26.250           2.188
  20557633.906    -1012701.133 7   -789116.40021        26.000           1.344
  20988325.000      135619.333 7    105677.22922        21.000           2.281
 91  5 20 22 37 30.0000000  0  3G 2G13G 6
  21801865.734      314450.768 7    245026.20822        26.000           2.219
  20551626.594    -1044267.928 7   -813713.86421        26.000           1.469
  20989538.781      141996.823 7    110646.67922        21.000           2.344
 91  5 20 22 37 45.0000000  0  3G 2G13G 6
  21803938.008      325346.048 7    253516.01822        25.750           2.125
  20545650.164    -1075677.123 7   -838188.53321        26.000           1.313
  20990779.570      148510.151 7    115721.97822        21.000           2.375
 91  5 20 22 38  0.0000000  0  3G 2G13G 6
  21806017.797      336275.055 7    262032.10222        26.250           2.094
  20539697.242    -1106956.890 7   -862562.34621        25.500           1.281
  20992039.508      155131.317 7    120881.31322        20.750           2.250
 91  5 20 22 38 15.0000000  0  3G 2G13G 6
  21808106.891      347241.870 7    270577.64822        26.000           2.156
  20533770.750    -1138102.978 7   -886831.99421        25.750           1.281
  20993317.672      161864.468 7    126127.89922        21.000           2.250
 91  5 20 22 38 30.0000000  0  3G 2G13G 6
  21810200.914      358251.248 7    279156.36422        25.750           2.156
  20527870.055    -1169110.702 7   -910993.82221        26.500           1.313
  20994622.172      168714.310 7    131465.41722        21.000           2.188
 91  5 20 22 38 45.0000000  0  3G 2G13G 6
  21812303.016      369303.949 7    287768.83422        25.750           2.125
  20521995.211    -1199979.155 7   -935047.13321        25.750           1.281
  20995951.023      175681.828 7    136894.63522        21.000           2.250
 91  5 20 22 39  0.0000000  0  3G 2G13G 6
  21814416.695      380402.455 7    296417.00322        26.000           2.156
  20516148.484    -1230705.909 7   -958990.03221        25.750           1.250
  20997294.938      182769.378 7    142417.38522        20.750           2.219
 91  5 20 22 39 15.0000000  0  3G 2G13G 6
  21816535.117      391544.202 7    305098.86522        25.500           1.906
  20510327.961    -1261293.344 7   -982824.36221        26.000           1.406
  20998670.258      189974.623 7    148031.83822        21.000           2.281
 91  5 20 22 39 30.0000000  0  3G 2G13G 6
  21818668.695      402741.180 7    313823.76522        25.500           2.125
  20504537.492    -1291729.533 7  -1006540.84721        26.250           1.375
  21000063.406      197309.351 7    153747.19122        21.500           2.188
 91  5 20 22 39 45.0000000  0  3G 2G13G 6
  21820807.063      413993.375 7    322591.68622        25.500           2.000
  20498772.984    -1322014.313 7  -1030139.34621        25.750           1.375
  21001486.492      204773.665 7    159563.51822        20.750           2.281
 91  5 20 22 40  0.0000000  0  3G 2G13G 6
  21822962.594      425305.041 7    331405.95422        26.250           2.125
  20493040.484    -1352143.507 7  -1053616.61221        26.000           1.313
  21002929.836      212371.890 7    165484.19122        21.250           2.125
 91  5 20 22 40 15.0000000  0  3G 2G13G 6
  21825124.141      436672.279 7    340263.52322        25.750           1.969
  20487335.141    -1382121.302 7  -1076975.90221        26.250           1.344
  21004403.094      220099.905 7    171505.99922        21.250           2.313
 91  5 20 22 40 30.0000000  0  3G 2G13G 6
  21827296.281      448088.372 7    349159.16122        25.500           2.031
  20481658.242    -1411954.356 7  -1100222.41021        26.250           1.250
  21005897.188      227951.251 7    177623.90822        21.250           2.125
 91  5 20 22 40 45.0000000  0  3G 2G13G 6
  21829479.891      459557.175 7    358095.87222        25.250           1.969
  20476009.891    -1441638.335 7  -1123352.75021        26.250           1.281
  21007412.227      235929.883 7    183841.00022        21.000           2.219
 91  5 20 22 41  0.0000000  0  4G 2G13G 6G12
  21831676.914      471099.273 7    367089.69022        25.750           2.063
  20470392.203    -1471152.878 7  -1146351.07221        25.750           1.250
  21008959.680      244056.149 7    190173.13322        22.000           2.125
  24229852.703          -0.42915                         7.750
 91  5 20 22 41 15.0000000  0  4G 2G13G 6G12
  21833882.383      482694.323 7    376124.77522        26.000           2.000
  20464805.039    -1500518.244 7  -1169233.14521        26.250           1.250
  21010532.539      252309.864 7    196604.57522        21.500           2.219
  24218258.570      -60936.987 4                         7.250
 91  5 20 22 41 30.0000000  0  4G 2G13G 6G12
  21836096.430      494334.217 7    385194.80622        26.000           2.125
  20459244.758    -1529742.553 7  -1192005.30221        26.500           1.281
  21012126.813      260682.955 7    203129.04222        21.250           2.250
  24206662.445     -121871.219 4        -0.39831         7.000           0.219
 91  5 20 22 41 45.0000000  0  4G 2G13G 6G12
  21838320.602      506024.894 7    394304.40422        26.000           2.125
  20453709.188    -1558819.937 7  -1214662.97621        25.750           1.313
  21013744.055      269181.165 7    209751.00022        21.750           2.188
  24195066.906     -182797.121 4    -47475.06021         7.000           0.344
 91  5 20 22 42  0.0000000  0  4G 2G13G 6G12
  21840557.289      517780.702 7    403464.75222        26.000           2.063
  20448206.938    -1587736.183 7  -1237195.09121        25.750           1.219
  21015386.992      277818.873 7    216481.65922        21.750           2.125
  24183480.391     -243700.257 4    -94931.97921         7.000           0.344
 91  5 20 22 42 15.0000000  0  4G 2G13G 6G12
  21842806.648      529601.967 7    412676.10522        25.500           2.094
  20442735.492    -1616490.708 7  -1259601.18221        26.250           1.219
  21017057.469      286596.595 7    223321.42222        21.500           2.156
  24171894.516     -304579.789 4   -142370.50921         7.250           0.281
 91  5 20 22 42 30.0000000  0  4G 2G13G 6G12
  21845068.656      541484.596 7    421935.28122        25.500           2.000
  20437294.305    -1645087.861 7  -1281884.65021        26.000           1.281
  21018754.172      295510.109 7    230266.99822        21.250           2.188
  24160313.336     -365439.827 5   -189793.83421         7.500           0.281
 91  5 20 22 42 45.0000000  0  4G 2G13G 6G12
  21847342.016      553425.366 7    431239.75422        26.000           2.063
  20431881.094    -1673530.588 7  -1304047.78821        26.000           1.313
  21020474.445      304556.246 7    237315.91122        21.750           2.219
  24148734.953     -426283.256 5   -237204.25821         8.000           0.250
 91  5 20 22 43  0.0000000  0  4G 2G13G 6G12
  21849626.891      565420.323 7    440586.45322        26.000           2.094
  20426497.336    -1701822.948 7  -1326093.76121        26.000           1.313
  21022217.969      313731.008 7    244465.05322        21.250           2.188
  24137158.977     -487113.815 5   -284604.61421         8.500           0.250
 91  5 20 22 43 15.0000000  0  4G 2G13G 6G12
  21851917.898      577461.792 7    449969.39322        25.750           2.000
  20421140.563    -1729972.629 7  -1348028.55021        26.250           1.313
  21023985.508      323026.755 7    251708.47222        21.500           2.156
  24125584.789     -547938.977 5   -332000.77821         8.750           0.250
 91  5 20 22 43 30.0000000  0  4G 2G13G 6G12
  21854218.000      589558.401 7    459395.30322        25.750           2.063
  20415812.828    -1757970.931 7  -1369845.37521        26.250           1.250
  21025783.117      332452.107 7    259052.87622        21.750           2.188
  24114012.922     -608749.869 5   -379385.82621         9.000           0.188
 91  5 20 22 43 45.0000000  0  4G 2G13G 6G12
  21856529.492      601710.462 7    468864.42322        25.500           2.031
  20410514.398    -1785817.712 7  -1391544.13821        26.500           1.219
  21027601.563      342007.334 7    266498.48422        21.500           2.188
  24102443.883     -669546.002 5   -426759.40321         9.500           0.250
 91  5 20 22 44  0.0000000  0  4G 2G13G 6G12
  21858855.672      613928.798 7    478385.18222        25.500           2.031
  20405245.336    -1813501.985 7  -1413116.26921        26.500           1.344
  21029443.648      351703.292 7    274053.75722        21.500           2.156
  24090879.633     -730316.262 5   -474112.78721         9.250           0.188
 91  5 20 22 44 15.0000000  0  4G 2G13G 6G12
  21861188.648      626194.435 7    487942.80122        25.500           1.938
  20400005.539    -1841042.498 7  -1434576.38621        26.750           1.281
  21031316.555      361521.223 7    281704.07322        21.250           2.188
  24079315.820     -791079.235 5   -521460.50821         9.000           0.188
 91  5 20 22 44 30.0000000  0  4G 2G13G 6G12
  21863536.391      638513.110 7    497541.74422        26.000           2.188
  20394792.680    -1868433.888 7  -1455920.29821        26.750           1.250
  21033204.836      371466.472 7    289453.58922        21.000           2.125
  24067756.047     -851829.219 5   -568798.10321         9.250           0.156
 91  5 20 22 44 45.0000000  0  4G 2G13G 6G12
  21865887.523      650881.068 7    507179.09022        26.250           2.000
  20389608.211    -1895679.938 7  -1477150.95421        27.000           1.281
  21035122.875      381535.545 7    297299.59822        20.750           2.219
  24056196.492     -912569.549 5   -616128.20621         9.000           0.125
 91  5 20 22 45  0.0000000  0  4G 2G13G 6G12
  21868253.250      663307.607 7    516862.08622        25.750           2.094
  20384451.977    -1922771.247 7  -1498261.04321        27.000           1.219
  21037062.539      391737.621 7    305249.24522        21.500           2.188
  24044641.516     -973290.808 5   -663443.40221         8.750           0.250
 91  5 20 22 45 15.0000000  0  4G 2G13G 6G12
  21870625.609      675784.565 7    526584.36422        25.500           2.063
  20379324.672    -1949716.003 7  -1519256.93421        27.500           1.250
  21039031.906      402064.596 7    313296.21222        21.500           2.188
  24033090.023    -1034000.732 5   -710749.78321         8.500           0.281
 91  5 20 22 45 30.0000000  0  4G 2G13G 6G12
  21873012.063      688322.919 7    536354.49022        25.250           1.969
  20374227.859    -1976503.195 8  -1540130.04221        28.000           1.250
  21041017.828      412527.392 7    321449.01522        20.750           2.094
  24021540.859    -1094688.179 5   -758038.64521         8.250           0.250
 91  5 20 22 45 45.0000000  0  4G 2G13G 6G12
  21875410.453      700915.032 7    546166.50222        25.500           1.969
  20369158.555    -2003140.406 7  -1560886.28621        27.500           1.281
  21043034.469      423118.383 7    329701.71122        21.500           2.031
  24009994.922    -1155360.585 5   -805315.78121         8.000           0.219
 91  5 20 22 46  0.0000000  0  4G 2G13G 6G12
  21877812.867      713554.107 7    556015.11222        25.500           2.000
  20364117.180    -2029634.573 7  -1581531.06921        27.750           1.281
  21045075.766      433830.715 7    338048.95622        21.250           2.188
  23998450.078    -1216024.456 5   -852586.25421         8.000           0.250
 91  5 20 22 46 15.0000000  0  4G 2G13G 6G12
  21880225.945      726234.833 7    565896.17322        26.000           1.969
  20359101.148    -2055991.110 8  -1602068.60321        28.000           1.250
  21047135.117      444658.995 7    346486.55122        20.250           2.156
  23986908.727    -1276684.911 5   -899854.09221         8.000           0.281
 91  5 20 22 46 30.0000000  0  4G 2G13G 6G12
  21882648.984      738966.936 7    575817.26422        25.500           2.031
  20354113.813    -2082200.172 8  -1622491.21721        28.250           1.313
  21049218.578      455612.979 7    355022.10222        20.750           2.219
  23975365.930    -1337331.986 5   -947111.47421         7.750           0.344
 91  5 20 22 46 45.0000000  0  4G 2G13G 6G12
  21885082.383      751751.436 7    585779.18722        25.000           2.000
  20349154.883    -2108260.825 8  -1642798.19621        28.250           1.250
  21051327.039      466693.657 7    363656.37022        21.250           2.125
  23963826.953    -1397964.460 5   -994357.49021         8.000           0.406
 91  5 20 22 47  0.0000000  0  4G 2G13G 6G12
  21887524.992      764579.227 7    595774.84722        25.250           1.969
  20344221.422    -2134182.321 8  -1662996.73921        28.250           1.344
  21053456.383      477892.075 7    372382.38322        20.750           2.063
  23952290.195    -1458591.051 5  -1041598.91621         8.000           0.375
 91  5 20 22 47 15.0000000  0  4G 2G13G 6G12
  21889976.523      777456.163 7    605808.80122        25.500           2.000
  20339316.875    -2159958.585 8  -1683082.11521        28.250           1.219
  21055611.039      489213.890 7    381204.55422        20.750           2.125
  23940756.109    -1519205.655 5  -1088831.02121         8.250           0.406
 91  5 20 22 47 30.0000000  0  4G 2G13G 6G12
  21892434.773      790385.537 7    615883.61622        25.250           2.000
  20334440.594    -2185586.333 8  -1703051.75821        28.250           1.313
  21057790.305      500662.470 7    390125.50022        21.000           2.125
  23929224.813    -1579804.802 5  -1136051.08121         8.250           0.281
 91  5 20 22 47 45.0000000  0  4G 2G13G 6G12
  21894904.500      803364.462 7    625997.04022        25.250           1.938
  20329591.164    -2211068.744 8  -1722908.15921        28.250           1.344
  21059993.117      512234.811 7    399142.87822        21.000           2.219
  23917696.023    -1640391.236 5  -1183261.21121         8.000           0.344
 91  5 20 22 48  0.0000000  0  4G 2G13G 6G12
  21897383.766      816399.374 7    636154.08822        25.250           2.031
  20324770.008    -2236399.284 8  -1742646.21921        28.250           1.438
  21062221.336      523937.445 7    408261.78622        20.750           2.156
  23906169.758    -1700958.088 5  -1230456.10221         8.000           0.406
 91  5 20 22 48 15.0000000  0  4G 2G13G 6G12
  21899871.281      829471.599 7    646340.21222        25.000           1.906
  20319976.195    -2261596.694 8  -1762280.54021        28.750           1.344
  21064471.938      535751.677 7    417467.65522        20.750           2.156
  23894645.344    -1761523.784 5  -1277650.07721         8.000           0.281
 91  5 20 22 48 30.0000000  0  4G 2G13G 6G12
  21902369.984      842592.573 7    656564.32522        25.250           1.813
  20315207.320    -2286649.535 8  -1781802.20721        28.250           1.281
  21066740.148      547688.902 7    426769.35222        20.750           2.125
  23883121.703    -1822076.653 5  -1324834.05921         8.500           0.313
 91  5 20 22 48 45.0000000  0  4G 2G13G 6G12
  21904877.555      855765.672 7    666829.05522        25.000           2.000
  20310469.016    -2311554.510 8  -1801208.65721        28.250           1.344
  21069033.891      559752.351 7    436169.41822        20.500           2.250
  23871602.492    -1882613.161 5  -1372005.32121         8.500           0.313
 91  5 20 22 49  0.0000000  0  4G 2G13G 6G12
  21907391.617      868987.267 7    677131.57522        25.250           1.875
  20305756.617    -2336315.230 8  -1820502.70221        28.000           1.281
  21071356.414      571938.276 7    445664.92422        20.750           2.219
  23860086.555    -1943136.722 5  -1419166.46821         9.250           0.125
 91  5 20 22 49 15.0000000  0  4G 2G13G 6G12
  21909918.180      882258.922 7    687473.09822        25.000           2.000
  20301072.469    -2360930.057 8  -1839683.06021        28.000           1.219
  21073697.664      584248.326 7    455257.14522        21.000           2.188
  23848571.758    -2003645.519 5  -1466316.13921         9.500           0.344
 91  5 20 22 49 30.0000000  0  4G 2G13G 6G12
  21912453.055      895580.711 7    697853.69122        25.250           1.938
  20296417.242    -2385399.213 8  -1858749.91321        28.000           1.344
  21076062.375      596682.559 7    464946.12922        20.500           2.188
  23837060.086    -2064139.146 5  -1513453.96621         9.750           0.219
 91  5 20 22 49 45.0000000  0  4G 2G13G 6G12
  21914996.414      908950.746 7    708271.87722        25.250           1.906
  20291787.594    -2409724.462 7  -1877704.62221        27.750           1.250
  21078454.695      609239.118 7    474730.43622        20.750           2.219
  23825549.586    -2124619.361 5  -1560581.36321         9.750           0.281
 91  5 20 22 50  0.0000000  0  4G 2G13G 6G12
  21917551.406      922365.324 7    718724.77622        25.000           1.938
  20287185.219    -2433909.284 8  -1896549.91821        28.000           1.281
  21080863.547      621914.295 7    484607.16722        21.000           2.281
  23814043.508    -2185089.394 5  -1607700.80921         9.750           0.188
 91  5 20 22 50 15.0000000  0  4G 2G13G 6G12
  21920111.727      935828.790 7    729215.75922        24.750           1.906
  20282610.672    -2457949.753 8  -1915282.72521        28.000           1.281
  21083300.102      634712.295 7    494579.60422        20.750           2.156
  23802540.563    -2245544.768 5  -1654808.82221        10.250           0.344
 91  5 20 22 50 30.0000000  0  4G 2G13G 6G12
  21922681.469      949337.025 7    739741.63022        24.750           1.906
  20278062.445    -2481850.057 8  -1933906.31521        28.250           1.219
  21085758.453      647628.965 7    504644.52122        20.500           2.188
  23791036.242    -2305989.423 5  -1701908.48921        10.000           0.281
 91  5 20 22 50 45.0000000  0  4G 2G13G 6G12
  21925263.375      962892.130 7    750304.02622        24.750           1.844
  20273541.516    -2505607.749 7  -1952418.77821        27.750           1.281
  21088237.516      660666.286 7    514803.44222        21.000           2.250
  23779537.664    -2366420.920 5  -1748997.93321        10.000           0.281
 91  5 20 22 51  0.0000000  0  4G 2G13G 6G12
  21927849.563      976493.386 7    760902.38522        24.750           1.875
  20269048.180    -2529223.612 8  -1970820.72721        28.000           1.281
  21090741.875      673823.809 7    525056.02122        20.500           2.156
  23768039.289    -2426839.624 5  -1796077.35221         9.750           0.375
 91  5 20 22 51 15.0000000  0  4G 2G13G 6G12
  21930446.797      990145.903 7    771540.68422        24.750           1.969
  20264582.133    -2552692.789 8  -1989108.37121        28.000           1.188
  21093271.734      687106.363 7    535406.03822        20.500           2.188
  23756546.758    -2487240.219 5  -1843142.68821         9.500           0.281
 91  5 20 22 51 30.0000000  0  4G 2G13G 6G12
  21933054.695     1003847.049 7    782216.87822        24.500           2.000
  20260142.688    -2576018.068 7  -2007283.88921        27.500           1.250
  21095821.414      700511.415 7    545851.50422        21.000           2.094
  23745055.945    -2547625.205 5  -1890195.88721         9.750           0.219
 91  5 20 22 51 45.0000000  0  4G 2G13G 6G12
  21935672.664     1017599.074 7    792932.71922        24.750           1.906
  20255731.641    -2599197.625 7  -2025345.85821        27.250           1.375
  21098395.367      714040.929 7    556393.94822        21.250           2.188
  23733567.500    -2607992.105 5  -1937234.96021         9.500           0.250
 91  5 20 22 52  0.0000000  0  4G 2G13G 6G12
  21938301.305     1031402.955 7    803688.96322        24.500           1.844
  20251348.781    -2622230.203 7  -2043293.30321        27.750           1.250
  21100991.430      727695.877 7    567034.13622        20.500           2.125
  23722083.578    -2668339.832 5  -1984259.09921        10.000           0.250
 91  5 20 22 52 15.0000000  0  4G 2G13G 6G12
  21940936.547     1045258.654 7                        23.750
  20246994.414    -2645115.672 8  -2061126.11421        28.000           1.375
  21103615.984      741476.229 7                        21.250
  23710605.734    -2728667.922 5  -2031267.96321        10.000           0.313
 91  5 20 22 52 30.0000000  0  4G 2G13G 6G12
  21943582.297     1059158.853 7                        24.000
  20242665.383    -2667861.445 7  -2078850.06421        27.500           1.250
  21106261.234      755374.730 7                        21.250
  23699128.328    -2788983.406 5  -2078266.96121        10.250           0.344
 91  5 20 22 52 45.0000000  0  4G 2G13G 6G12
  21946237.367     1073112.163 7    836189.56822        24.000           1.906
  20238364.844    -2690459.311 7  -2096458.77521        27.750           1.281
  21108929.547      769399.869 7    599530.66122        21.000           2.094
  23687650.805    -2849277.518 5  -2125249.33221        10.250           0.219
 91  5 20 22 53  0.0000000  0  4G 2G13G 6G12
  21948902.078     1087119.355 7    847104.24722        24.250           1.750
  20234093.805    -2712908.509 8  -2113951.63421        28.000           1.313
  21111623.031      783552.396 7    610558.58122        21.250           2.094
  23676182.039    -2909549.216 5  -2172214.24921        10.000           0.344
 91  5 20 22 53 15.0000000  0  4G 2G13G 6G12
  21951575.344     1101175.055 7    858056.71422        24.000           1.781
  20229848.570    -2735214.323 8  -2131332.76321        28.000           1.313
  21114341.711      797826.894 7    621681.53522        21.250           2.188
  23664716.414    -2969803.719 5  -2219165.74921        10.250           0.344
 91  5 20 22 53 30.0000000  0  4G 2G13G 6G12
  21954258.164     1115276.886 7    869045.13022        24.250           1.938
  20225631.172    -2757378.879 8  -2148603.82221        28.000           1.250
  21117081.406      812220.981 7    632897.68122        21.000           2.188
  23653253.859    -3030042.930 5  -2266105.33521        10.250           0.219
 91  5 20 22 53 45.0000000  0  4G 2G13G 6G12
  21956951.969     1129422.951 7    880068.01622        24.250           1.938
  20221439.008    -2779404.101 8  -2165766.31121        28.250           1.281
  21119841.125      826732.786 7    644205.55522        21.250           2.031
  23641791.242    -3090268.468 5  -2313034.26821        10.000           0.469
 91  5 20 22 54  0.0000000  0  4G 2G13G 6G12
  21959655.648     1143620.529 7    891131.04322        23.750           1.781
  20217276.672    -2801283.029 8  -2182814.80721        28.500           1.313
  21122625.344      841369.487 7    655610.74222        21.500           2.156
  23630334.930    -3150472.718 5  -2359946.61021        10.000           0.500
 91  5 20 22 54 15.0000000  0  4G 2G13G 6G12
  21962363.461     1157873.846 7    902237.50022        23.750           1.750
  20213141.195    -2823011.693 8  -2199746.21221        28.750           1.375
  21125437.250      856135.183 7    667116.45322        21.000           2.125
  23618886.297    -3210651.407 5  -2406839.04121        10.500           0.375
 91  5 20 22 54 30.0000000  0  4G 2G13G 6G12
  21965088.430     1172171.734 7    913378.69022        24.500           1.719
  20209032.875    -2844601.359 8  -2216569.30221        28.250           1.375
  21128269.984      871018.471 7    678713.79422        21.250           2.063
  23607435.742    -3270815.437 5  -2453720.03421        11.250           0.469
 91  5 20 22 54 45.0000000  0  4G 2G13G 6G12
  21967817.414     1186517.905 7    924557.50222        24.000           1.719
  20204951.211    -2866048.120 8  -2233281.04821        28.250           1.344
  21131123.180      886023.275 7    690405.82222        21.500           2.063
  23595990.586    -3330960.713 5  -2500586.42921        11.500           0.375
 91  5 20 22 55  0.0000000  0  4G 2G13G 6G12
  21970553.469     1200909.574 7    935771.76522        23.750           1.750
  20200897.992    -2887354.743 8  -2249883.58921        28.500           1.313
  21134004.344      901146.648 7    702190.23922        21.500           2.094
  23584546.938    -3391089.862 5  -2547440.26521        11.500           0.469
 91  5 20 22 55 15.0000000  0  4G 2G13G 6G12
  21973303.516     1215353.796 7    947026.98322        23.250           1.719
  20196870.383    -2908514.139 8  -2266371.40621        28.500           1.250
  21136902.688      916395.606 7    714072.51422        21.500           2.125
  23573110.992    -3451195.537 6  -2594275.80921        12.000           0.375
 91  5 20 22 55 30.0000000  0  4G 2G13G 6G12
  21976062.281     1229851.073 7    958323.53722        23.500           1.750
  20192872.195    -2929526.191 8  -2282744.41621        28.500           1.406
  21139829.539      931770.632 7    726053.02522        21.500           1.969
  23561677.211    -3511277.009 6  -2641092.49221        12.000           0.313
 91  5 20 22 55 45.0000000  0  4G 2G13G 6G12
  21978827.555     1244389.248 7    969651.96522        23.000           1.719
  20188899.070    -2950403.393 8  -2299012.34321        28.500           1.313
  21142777.914      947259.297 7    738122.08022        21.500           1.969
  23550246.969    -3571346.178 6  -2687899.58421        12.000           0.281
 91  5 20 22 56  0.0000000  0  4G 2G13G 6G12
  21981607.664     1258980.787 7    981021.97122        23.750           1.688
  20184954.789    -2971133.298 8  -2315165.50321        28.750           1.313
  21145745.734      962874.043 7    750289.38822        21.000           2.000
  23538820.852    -3631390.455 5  -2734687.28321        11.750           0.406
 91  5 20 22 56 15.0000000  0  4G 2G13G 6G12
  21984392.664     1273624.506 7    992432.63422        23.500           1.563
  20181037.438    -2991717.003 8  -2331204.72921        28.500           1.281
  21148743.461      978613.744 7    762554.06022        21.500           2.000
  23527399.055    -3691410.639 5  -2781456.22121        11.750           0.438
 91  5 20 22 56 30.0000000  0  4G 2G13G 6G12
  21987188.430     1288317.009 7   1003881.31522        23.750           1.688
  20177147.727    -3012158.080 8  -2347132.82021        28.250           1.313
  21151762.836      994474.977 7    774913.43022        21.250           1.906
  23515982.750    -3751409.875 5  -2828208.81721        11.750           0.406
 91  5 20 22 56 45.0000000  0  4G 2G13G 6G12
  21989994.703     1303060.172 7   1015369.47722        23.500           1.594
  20173284.570    -3032454.489 8  -2362948.18321        28.250           1.281
  21154803.922     1010459.462 7    787368.85122        21.250           1.969
  23504566.813    -3811385.936 5  -2874943.34921        11.250           0.500
 91  5 20 22 57  0.0000000  0  4G 2G13G 6G12
  21992811.844     1317857.810 7   1026900.08322        23.500           1.563
  20169451.688    -3052602.363 8  -2378647.80821        28.500           1.188
  21157867.766     1026570.974 7    799923.24722        21.500           2.031
  23493159.258    -3871334.754 5  -2921656.66121        11.000           0.406
 91  5 20 22 57 15.0000000  0  4G 2G13G 6G12
  21995635.555     1332696.986 7   1038463.05122        23.250           1.656
  20165643.055    -3072615.182 8  -2394242.19721        28.500           1.250
  21160955.094     1042796.518 7    812566.50422        21.250           1.938
  23481756.313    -3931268.995 5  -2968358.60621        11.250           0.406
 91  5 20 22 57 30.0000000  0  4G 2G13G 6G12
  21998468.852     1347582.985 7   1050062.50422        23.500           1.594
  20161861.648    -3092487.597 8  -2409727.17621        28.250           1.188
  21164064.281     1059141.222 7    825302.60522        21.000           1.938
  23470355.273    -3991183.204 5  -3015044.94121        11.500           0.281
 91  5 20 22 57 45.0000000  0  4G 2G13G 6G12
  22001310.641     1362523.276 7   1061704.26622        22.750           1.594
  20158108.719    -3112212.114 8  -2425096.90821        29.000           1.156
  21167200.313     1075612.594 7    838137.41122        21.250           1.938
  23458960.188    -4051069.453 5  -3061709.49721        11.500           0.281
 91  5 20 22 58  0.0000000  0  4G 2G13G 6G12
  22004162.578     1377509.320 7   1073381.67822        22.750           1.563
  20154380.844    -3131797.378 8  -2440358.14221        28.750           1.188
  21170357.242     1092201.954 7    851064.15522        21.000           1.844
  23447567.578    -4110936.117 5  -3108358.79021        11.750           0.406
 91  5 20 22 58 15.0000000  0  4G 2G13G 6G12
  22007021.578     1392540.530 7   1085094.28822        23.000           1.531
  20150680.617    -3151244.238 8  -2455511.51621        28.750           1.250
  21173536.891     1108908.741 7    864082.40022        20.750           1.875
  23436177.180    -4170783.407 5  -3154993.00021        11.500           0.344
 91  5 20 22 58 30.0000000  0  4G 2G13G 6G12
  22009890.367     1407619.109 7   1096843.80521        23.000           1.469
  20147006.859    -3170550.558 8  -2470555.38421        28.500           1.156
  21176738.742     1125735.042 7    877193.77422        20.500           1.906
  23424793.531    -4230608.909 5  -3201610.20521        11.500           0.406
 91  5 20 22 58 44.9990000  0  4G 2G13G 6G12
  22012767.417     1422741.495 7   1108627.46022        23.000           1.594
  20143359.308    -3189717.702 8  -2485490.80021        29.000           1.250
  21179965.847     1142677.012 7    890395.28022        20.500           1.906
  23413412.292    -4290411.021 5  -3248209.19821        11.500           0.375
 91  5 20 22 58 59.9990000  0  4G 2G13G 6G12
  22015654.956     1437914.770 7   1120450.76622        23.000           1.500
  20139738.534    -3208743.086 8  -2500315.75821        28.750           1.250
  21183211.706     1159742.064 7    903692.69222        20.750           1.906
  23402038.597    -4350192.156 5  -3294791.85721        11.500           0.438
 91  5 20 22 59 14.9990000  0  4G 2G13G 6G12
  22018556.472     1453146.038 7   1132319.25622        23.000           1.563
  20136147.628    -3227617.459 8  -2515023.04221        29.000           1.313
  21186482.019     1176937.057 7    917091.36122        20.750           1.906
  23390666.167    -4409940.073 6  -3341348.60921        12.000           0.438
 91  5 20 22 59 29.9990000  0  4G 2G13G 6G12
  22021462.901     1468426.455 7   1144226.05221        23.000           1.438
  20132582.894    -3246349.577 8  -2529619.48321        28.750           1.250
  21189778.105     1194252.979 7    930584.25822        20.250           1.906
  23379299.667    -4469663.278 6  -3387886.11821        12.500           0.469
 91  5 20 22 59 44.9990000  0  4G 2G13G 6G12
  22024377.198     1483757.140 7   1156172.01422        22.500           1.500
  20129045.355    -3264938.461 8  -2544104.30921        28.750           1.281
  21193097.847     1211690.940 7    944172.24622        20.500           1.938
  23367941.659    -4529360.385 6  -3434403.28721        12.750           0.469
 91  5 20 22 59 59.9990000  0  4G 2G13G 6G12
  22027307.308     1499135.192 7   1168154.88321        22.500           1.438
  20125533.980    -3283387.457 8  -2558480.14021        29.000           1.219
  21196436.769     1229247.858 7    957852.93522        20.250           1.875
  23356585.683    -4589034.161 6  -3480902.28321        12.750           0.500
 91  5 20 23  0 14.9990000  0  4G 2G13G 6G12
  22030242.261     1514567.307 7   1180179.88121        23.000           1.438
  20122051.784    -3301690.005 8  -2572741.84221        28.750           1.250
  21199803.261     1246930.288 7    971631.41922        20.000           1.875
  23345233.925    -4648677.682 6  -3527377.70221        13.000           0.438
 91  5 20 23  0 29.9990000  0  4G 2G13G 6G12
  22033190.940     1530055.008 7   1192248.19121        22.750           1.438
  20118597.386    -3319844.393 8  -2586888.09621        29.000           1.250
  21203189.565     1264739.862 7    985508.98022        20.250           1.875
  23333893.495    -4708288.944 6  -3573827.98521        13.250           0.469
 91  5 20 23  0 44.9990000  0  4G 2G13G 6G12
  22036145.605     1545594.022 7   1204356.48422        23.000           1.500
  20115168.862    -3337855.016 8  -2600922.33421        28.500           1.313
  21206606.675     1282672.085 7    999482.10622        21.000           1.875
  23322553.792    -4767872.019 6  -3620256.29821        12.750           0.469
 91  5 20 23  0 59.9990000  0  4G 2G13G 6G12
  22039114.612     1561189.111 7   1216508.47422        22.750           1.500
  20111770.855    -3355717.528 8  -2614841.15921        29.000           1.313
  21210039.745     1300731.737 7   1013554.53622        20.500           1.813
  23311222.347    -4827421.799 6  -3666658.66921        12.750           0.406
 91  5 20 23  1 14.9990000  0  4G 2G13G 6G12
  22042095.683     1576846.672 7   1228709.13921        23.000           1.438
  20108400.761    -3373425.281 8  -2628639.38821        28.750           1.281
  21213502.011     1318925.155 7   1027731.19222        20.000           1.844
  23299898.589    -4886931.590 6  -3713029.88421        12.500           0.469
 91  5 20 23  1 29.9990000  0  4G 2G13G 6G12
  22045085.425     1592570.485 7   1240961.43721        22.750           1.469
  20105061.190    -3390974.722 8  -2642314.26121        29.250           1.375
  21216992.386     1337255.962 7   1042014.90222        20.500           1.938
  23288581.815    -4946397.440 6  -3759366.85621        12.250           0.406
 91  5 20 23  1 44.9990000  0  4G 2G13G 6G12
  22048092.378     1608366.181 7   1253269.73821        22.500           1.406
  20101753.714    -3408360.409 8  -2655861.53121        29.500           1.344
  21220506.456     1355729.802 7   1056410.06722        20.500           1.813
  23277275.175    -5005813.288 6  -3805664.87421        12.250           0.375
 91  5 20 23  1 59.9990000  0  4G 2G13G 6G12
  22051110.222     1624220.818 7   1265623.97821        22.750           1.438
  20098473.167    -3425595.295 8  -2669291.29521        29.750           1.250
  21224044.730     1374333.537 6   1070906.44922        19.750           1.781
  23265976.159    -5065191.914 6  -3851933.88021        12.500           0.438
 91  5 20 23  2 14.9990000  0  4G 2G13G 6G12
  22054139.019     1640135.713 7   1278025.15921        22.500           1.438
  20095222.526    -3442678.095 8  -2682602.56121        29.750           1.375
  21227611.144     1393068.323 7   1085504.94722        20.000           1.781
  23254683.753    -5124531.592 6  -3898172.53921        12.750           0.375
 91  5 20 23  2 29.9990000  0  4G 2G13G 6G12
  22057179.808     1656117.410 7   1290478.40121        23.000           1.438
  20092001.776    -3459602.363 8  -2695790.27821        29.500           1.344
  21231203.581     1411940.716 7   1100210.67322        20.750           1.813
  23243402.315    -5183825.660 6  -3944375.66721        12.500           0.344
 91  5 20 23  2 44.9990000  0  4G 2G13G 6G12
  22060230.534     1672159.074 7   1302978.36921        22.500           1.469
  20088809.667    -3476375.173 8  -2708859.98321        29.500           1.313
  21234820.698     1430943.688 7   1115018.14322        20.500           1.906
  23232125.409    -5243080.661 6  -3990548.34621        12.250           0.344
 91  5 20 23  2 59.9990000  0  4G 2G13G 6G12
  22063294.980     1688258.919 7   1315523.67521        22.500           1.438
  20085646.644    -3492998.679 8  -2721813.34721        29.750           1.313
  21238461.644     1450075.336 7   1129925.88622        20.250           1.875
  23220857.026    -5302298.186 6  -4036691.83221        12.250           0.438
 91  5 20 23  3 14.9990000  0  4G 2G13G 6G12
  22066369.792     1704414.881 7   1328112.70721        22.500           1.438
  20082512.347    -3509474.696 8  -2734651.78221        30.000           1.344
  21242126.550     1469333.640 7   1144932.31722        20.750           1.844
  23209594.198    -5361479.885 6  -4082807.39821        12.250           0.500
 91  5 20 23  3 29.9990000  0  4G 2G13G 6G12
  22069455.823     1720635.672 7   1340752.25021        22.250           1.406
  20079405.855    -3525794.793 8  -2747368.72021        29.750           1.313
  21245816.308     1488727.287 7   1160044.20722        20.750           1.781
  23198341.761    -5420616.708 6  -4128887.98421        12.250           0.375
 91  5 20 23  3 44.9990000  0  4G 2G13G 6G12
  22072555.745     1736923.949 7   1353444.38221        22.000           1.406
  20076329.995    -3541956.361 8  -2759962.13621        29.750           1.344
  21249531.472     1508258.645 7   1175263.41422        20.250           1.781
  23187097.456    -5479705.753 6  -4174931.35221        12.500           0.344
 91  5 20 23  3 59.9990000  0  4G 2G13G 6G12
  22075667.362     1753270.870 7   1366182.21221        22.000           1.375
  20073284.058    -3557968.513 8  -2772439.11721        29.500           1.406
  21253272.253     1527918.832 7   1190582.99922        20.250           1.719
  23175861.573    -5538755.662 6  -4220944.23221        13.250           0.313
 91  5 20 23  4 14.9990000  0  4G 2G13G 6G12
  22078791.292     1769686.627 7   1378973.67522        22.000           1.531
  20070266.917    -3573821.184 8  -2784791.83021        29.500           1.250
  21257040.878     1547717.881 7   1206010.79022        20.750           1.781
  23164632.683    -5597756.005 6  -4266918.48421        13.250           0.250
 91  5 20 23  4 29.9990000  0  4G 2G13G 6G12
  22081924.058     1786163.605 7   1391812.84721        21.750           1.438
  20067279.136    -3589521.999 8  -2797026.21721        29.500           1.281
  21260834.214     1567648.105 7   1221540.79822        20.250           1.688
  23153413.050    -5656714.011 6  -4312859.76321        13.500           0.406
 91  5 20 23  4 44.9990000  0  4G 2G13G 6G12
  22085072.550     1802698.608 7   1404697.22721        21.500           1.375
  20064318.534    -3605074.177 8  -2809144.78021        29.250           1.375
  21264650.878     1587706.262 7   1237170.49222        20.500           1.750
  23142201.128    -5715632.612 6  -4358770.32821        13.750           0.344
 91  5 20 23  4 59.9990000  0  4G 2G13G 6G12
  22088234.347     1819304.137 7   1417636.57221        22.000           1.438
  20061390.683    -3620465.238 8  -2821137.80521        29.250           1.313
  21268493.542     1607904.719 7   1252909.50822        20.500           1.750
  23130999.862    -5774499.046 6  -4404640.24221        13.750           0.313
 91  5 20 23  5 14.9990000  0  4G 2G13G 6G12
  22091401.433     1835968.828 7   1430622.01121        21.750           1.406
  20058489.519    -3635707.049 8  -2833014.52121        29.750           1.188
  21272363.776     1628231.982 7   1268748.89022        20.250           1.750
  23119803.730    -5833324.336 6  -4450478.09821        13.000           0.438
 91  5 20 23  5 29.9990000  0  4G 2G13G 6G12
  22094588.753     1852699.623 7   1443658.96422        22.250           1.500
  20055619.534    -3650792.626 8  -2844769.50021        29.500           1.344
  21276257.370     1648694.991 7   1284694.04822        20.250           1.688
  23108619.870    -5892101.169 6  -4496278.19121        13.000           0.375
 91  5 20 23  5 44.9990000  0  4G 2G13G 6G12
  22097785.019     1869496.103 7   1456747.09521        22.250           1.469
  20052777.878    -3665722.525 8  -2856403.16821        29.500           1.281
  21280176.355     1669293.027 7   1300744.43122        20.250           1.594
  23097444.425    -5950829.911 6  -4542040.80321        13.000           0.531
 91  5 20 23  5 59.9990000  0  4G 2G13G 6G12
  22100991.620     1886354.281 7   1469883.30621        21.500           1.344
  20049966.862    -3680501.009 8  -2867918.85621        29.500           1.344
  21284120.987     1690022.037 7   1316896.86222        20.500           1.625
  23086277.956    -6009514.184 6  -4587768.76621        13.250           0.438
 91  5 20 23  6 14.9990000  0  4G 2G13G 6G12
  22104210.534     1903268.211 7   1483062.95721        21.750           1.313
  20047181.331    -3695133.906 8  -2879321.09721        29.500           1.281
  21288090.440     1710875.904 7   1333146.58822        20.000           1.656
  23075116.948    -6068159.662 6  -4633466.49921        13.750           0.406
 91  5 20 23  6 29.9990000  0  4G 2G13G 6G12
  22107442.214     1920240.905 7   1496288.40021        21.500           1.406
  20044425.331    -3709618.500 8  -2890607.77821        29.500           1.281
  21292081.378     1731857.712 6   1349496.01122        19.750           1.688
  23063965.558    -6126762.956 6  -4679131.37421        13.500           0.531
 91  5 20 23  6 44.9990000  0  4G 2G13G 6G12
  22110681.503     1937270.342 7   1509558.05821        21.750           1.469
  20041695.886    -3723957.033 8  -2901780.64321        29.000           1.313
  21296100.011     1752965.231 7   1365943.38622        20.000           1.656
  23052822.761    -6185325.786 6  -4724764.70721        13.500           0.500
 91  5 20 23  6 59.9990000  0  4G 2G13G 6G12
  22113932.605     1954357.637 7   1522872.79421        21.500           1.438
  20038995.831    -3738148.410 8  -2912838.84121        29.000           1.281
  21300140.651     1774199.450 7   1382489.49422        20.250           1.563
  23041685.323    -6243846.671 6  -4770365.35421        13.500           0.625
 91  5 20 23  7 14.9990000  0  4G 2G13G 6G12
  22117192.284     1971488.268 7   1536221.30521        21.000           1.344
  20036320.823    -3752207.217 8  -2923793.74121        29.500           1.188
  21304199.987     1795545.889 7   1399123.03822        20.250           1.563
  23030554.308    -6302339.841 6  -4815944.40321        13.250           0.469
 91  5 20 23  7 29.9990000  0  4G 2G13G 6G12
  22120460.925     1988666.658 7   1549607.02421        20.750           1.469
  20033671.761    -3766129.419 8  -2934642.19221        29.750           1.219
  21308285.394     1817008.549 7   1415847.14922        20.250           1.531
  23019428.870    -6360800.774 6  -4861498.32721        13.000           0.438
 91  5 20 23  7 44.9990000  0  4G 2G13G 6G12
  22123739.175     2005890.443 7   1563028.11421        21.500           1.469
  20031047.355    -3779917.219 8  -2945385.91521        29.250           1.219
  21312392.940     1838585.170 7   1432660.05822        20.750           1.594
  23008309.831    -6419231.422 6  -4907028.66321        13.000           0.594
 91  5 20 23  7 59.9990000  0  4G 2G13G 6G12
  22127027.151     2023166.451 7   1576489.90121        21.500           1.469
  20028451.003    -3793563.976 8  -2956019.73921        29.250           1.313
  21316521.386     1860282.544 7   1449567.06222        20.250           1.594
  22997197.878    -6477624.627 6  -4952529.80821        13.000           0.469
 91  5 20 23  8 14.9990000  0  4G 2G13G 6G12
  22130323.167     2040493.191 7   1589991.22621        20.750           1.313
  20025880.214    -3807071.443 8  -2966545.01921        29.500           1.156
  21320672.675     1882098.846 6   1466566.74222        19.750           1.594
  22986093.987    -6535981.651 6  -4998002.76621        13.000           0.500
 91  5 20 23  8 29.9990000  0  4G 2G13G 6G12
  22133628.901     2057868.893 7   1603530.70021        20.250           1.406
  20023335.870    -3820441.683 8  -2976963.37121        29.750           1.250
  21324847.589     1904032.308 7   1483657.70622        20.500           1.625
  22974995.011    -6594304.061 6  -5043448.75021        13.500           0.688
 91  5 20 23  8 44.9990000  0  4G 2G13G 6G12
  22136943.659     2075288.312 7   1617104.23121        20.500           1.406
  20020816.370    -3833680.026 8  -2987278.95121        29.250           1.219
  21329042.737     1926077.569 7   1500835.78822        20.250           1.625
  22963901.370    -6652596.484 6  -5088871.37721        13.750           0.531
 91  5 20 23  8 59.9990000  0  4G 2G13G 6G12
  22140269.394     2092760.079 7   1630718.55521        20.750           1.344
  20018324.339    -3846778.002 8  -2997485.15121        29.250           1.250
  21333259.925     1948243.218 6   1518107.68122        19.750           1.531
  22952816.120    -6710850.191 6  -5134263.82721        14.000           0.563
 91  5 20 23  9 14.9990000  0  4G 2G13G 6G12
  22143602.136     2110275.598 7   1644366.97521        20.750           1.344
  20015857.105    -3859744.308 8  -3007588.75521        29.500           1.313
  21337499.573     1970520.224 7   1535466.35222        20.000           1.563
  22941738.081    -6769073.542 6  -5179632.61421        14.250           0.563
 91  5 20 23  9 29.9990000  0  4G 2G13G 6G12
  22146945.487     2127836.060 7   1658050.41421        21.000           1.344
  20013414.956    -3872577.648 8  -3017588.74221        29.750           1.188
  21341759.003     1992909.997 6   1552912.88722        19.750           1.594
  22930664.370    -6827264.936 6  -5224976.52121        14.000           0.500
 91  5 20 23  9 44.9990000  0  4G 2G13G 6G12
  22150296.315     2145444.408 7   1671771.17021        20.750           1.406
  20010999.019    -3885275.570 8  -3027483.21521        29.500           1.250
  21346039.792     2015415.047 7   1570449.25122        20.000           1.531
  22919597.987    -6885421.281 6  -5270293.10521        14.250           0.563
 91  5 20 23  9 59.9990000  0  4G 2G13G 6G12
  22153654.839     2163100.207 7   1685528.89421        20.000           1.406
  20008608.276    -3897838.382 8  -3037272.40221        29.500           1.250
  21350345.089     2038035.088 6   1588075.21922        19.750           1.594
  22908536.589    -6943542.593 6  -5315582.38821        14.250           0.500
 91  5 20 23 10 14.9990000  0  4G 2G13G 6G12
  22157022.120     2180791.797 7   1699314.51321        20.250           1.344
  20006240.058    -3910278.106 8  -3046965.68521        29.500           1.281
  21354671.737     2060758.192 7   1605781.49622        20.000           1.625
  22897480.362    -7001640.089 6  -5360853.11621        14.500           0.500
 91  5 20 23 10 29.9990000  0  4G 2G13G 6G12
  22160397.136     2198528.562 7   1713135.32821        20.000           1.313
  20003898.769    -3922585.493 8  -3056555.84221        29.500           1.250
  21359015.948     2083593.737 6   1623575.38322        19.750           1.594
  22886431.683    -7059704.158 6  -5406097.80621        15.000           0.531
 91  5 20 23 10 44.9990000  0  4G 2G13G 6G12
  22163780.026     2216305.876 7   1726987.73921        20.500           1.375
  20001581.058    -3934765.175 8  -3066046.49121        29.500           1.313
  21363380.370     2106536.867 6   1641453.10522        19.500           1.594
  22875389.081    -7117739.234 6  -5451319.89121        15.250           0.563
 91  5 20 23 10 59.9990000  0  4G 2G13G 6G12
  22167169.534     2234125.371 7   1740873.02121        20.250           1.375
  19999288.073    -3946815.763 8  -3075436.55321        29.250           1.281
  21367767.940     2129589.141 6   1659415.87822        19.250           1.656
  22864350.065    -7175743.361 6  -5496517.86221        15.000           0.625
 91  5 20 23 11 14.9990000  0  4G 2G13G 6G12
  22170570.214     2251985.331 7   1754789.83421        21.000           1.406
  19997019.542    -3958739.131 8  -3084727.47621        29.500           1.219
  21372175.573     2152748.691 6   1677462.24122        19.750           1.625
  22853317.448    -7233717.963 6  -5541692.82621        14.500           0.594
 91  5 20 23 11 29.9990000  0  4G 2G13G 6G12
  22173977.042     2269888.409 7   1768740.24421        20.750           1.375
  19994774.034    -3970532.736 8  -3093917.28821        29.750           1.344
  21376603.784     2176017.929 6   1695594.07622        19.500           1.563
  22842291.198    -7291660.164 6  -5586842.54221        14.250           0.594
 91  5 20 23 11 44.9990000  0  4G 2G13G 6G12
  22177392.386     2287829.186 7   1782720.02321        20.750           1.313
  19992553.519    -3982202.165 8  -3103010.33821        29.750           1.344
  21381050.167     2199391.375 6   1713807.11522        19.750           1.563
  22831271.167    -7349574.999 6  -5631970.92221        13.750           0.531
 91  5 20 23 11 59.9990000  0  4G 2G13G 6G12
  22180812.011     2305814.500 7   1796734.51421        21.000           1.313
  19990358.800    -3993740.788 8  -3112001.45821        29.500           1.344
  21385520.073     2222875.791 6   1732106.62322        19.500           1.563
  22820256.245    -7407455.315 6  -5677072.41321        14.250           0.563
 91  5 20 23 12 14.9990000  0  4G 2G13G 6G12
  22184247.120     2323851.448 7   1810789.24121        20.750           1.313
  19988188.987    -4005141.543 8  -3120885.15321        29.750           1.313
  21390010.222     2246477.976 6   1750497.89622        19.500           1.531
  22809249.409    -7465293.680 6  -5722141.22421        14.500           0.563
 91  5 20 23 12 29.9990000  0  4G 2G13G 6G12
  22187686.698     2341940.661 7   1824884.68921        20.750           1.375
  19986045.987    -4016404.230 8  -3129661.25821        29.750           1.344
  21394526.784     2270198.601 6   1768981.46222        19.500           1.625
  22798251.862    -7523089.152 6  -5767176.61621        14.750           0.625
 91  5 20 23 12 44.9990000  0  4G 2G13G 6G12
  22191141.159     2360094.504 7   1839030.49521        20.750           1.281
  19983930.784    -4027516.572 8  -3138320.21621        30.000           1.313
  21399064.487     2294049.699 6   1787566.69822        19.000           1.531
  22787265.237    -7580829.211 6  -5812168.81721        15.000           0.594
 91  5 20 23 12 59.9990000  0  4G 2G13G 6G12
  22194607.308     2378303.799 7   1853219.51821        20.750           1.281
  19981842.698    -4038487.946 8  -3146869.32521        29.500           1.344
  21403624.487     2318022.076 6   1806246.43522        19.250           1.656
  22776288.605    -7638522.555 6  -5857124.62421        15.250           0.625
 91  5 20 23 13 14.9990000  0  4G 2G13G 6G12
  22198083.589     2396566.341 7   1867450.03521        20.500           1.281
  19979781.683    -4049320.540 8  -3155310.30021        29.750           1.313
  21408210.394     2342113.439 6   1825018.88522        19.250           1.688
  22765317.151    -7696170.986 6  -5902045.42121        15.250           0.594
 91  5 20 23 13 29.9990000  0  4G 2G13G 6G12
  22201568.792     2414884.109 7   1881723.57821        20.250           1.281
  19977747.042    -4060012.543 8  -3163641.71821        30.000           1.406
  21412818.565     2366325.582 6   1843885.44422        19.250           1.563
  22754355.769    -7753772.295 6  -5946929.50921        15.500           0.563
 91  5 20 23 13 44.9990000  0  4G 2G13G 6G12
  22205063.190     2433245.615 7   1896031.20921        20.250           1.250
  19975737.253    -4070575.722 8  -3171872.75421        30.000           1.313
  21417447.284     2390647.003 6   1862837.15922        19.250           1.500
  22743400.456    -7811337.605 6  -5991785.54521        15.000           0.594
 91  5 20 23 13 59.9990000  0  4G 2G13G 6G12
  22208565.581     2451653.593 6   1910375.04621        19.750           1.313
  19973751.464    -4081007.364 8  -3180001.29121        29.750           1.375
  21422097.894     2415080.097 6   1881875.89222        19.750           1.625
  22732453.128    -7868864.054 6  -6036611.29721        15.250           0.656
 91  5 20 23 14 14.9990000  0  4G 2G13G 6G12
  22212078.175     2470117.101 7   1924762.14921        20.000           1.313
  19971793.909    -4091298.655 8  -3188020.47221        29.500           1.375
  21426769.292     2439633.717 6   1901008.54322        19.250           1.500
  22721515.940    -7926342.327 6  -6081399.52821        15.750           0.500
 91  5 20 23 14 29.9990000  0  4G 2G13G 6G12
  22215601.300     2488631.584 6   1939188.98621        19.500           1.219
  19969860.597    -4101454.517 8  -3195934.11621        29.500           1.344
  21431463.706     2464303.239 6   1920231.50522        19.250           1.625
  22710586.409    -7983776.662 6  -6126153.51021        16.250           0.594
 91  5 20 23 14 44.9990000  0  4G 2G13G 6G12
  22219132.534     2507185.144 7   1953646.27221        20.000           1.281
  19967952.339    -4111486.934 8  -3203751.57121        29.750           1.344
  21436178.222     2489076.618 6   1939535.39922        19.250           1.594
  22699663.097    -8041178.623 6  -6170882.27321        16.250           0.531
 91  5 20 23 14 59.9990000  0  4G 2G13G 6G12
  22222673.042     2525787.967 7   1968141.93321        20.250           1.125
  19966067.980    -4121385.802 8  -3211464.96321        29.250           1.344
  21440913.573     2513964.024 6   1958928.13622        19.250           1.625
  22688747.792    -8098537.621 6  -6215577.56221        16.000           0.594
 91  5 20 23 15 14.9990000  0  4G 2G13G 6G12
  22226222.401     2544441.338 7   1982676.99021        20.250           1.219
  19964210.222    -4131149.989 8  -3219073.40621        29.500           1.438
  21445671.292     2538966.521 6   1978410.56022        19.250           1.563
  22677841.120    -8155852.092 6  -6260238.15121        16.000           0.656
 91  5 20 23 15 29.9990000  0  4G 2G13G 6G12
  22229784.980     2563155.745 7   1997259.60621        20.000           1.313
  19962379.651    -4140769.386 8  -3226569.03521        29.500           1.344
  21450451.378     2564094.359 6   1997990.65022        19.000           1.594
  22666946.800    -8213111.226 6  -6304855.62221        16.500           0.656
 91  5 20 23 15 44.9990000  0  4G 2G13G 6G12
  22233356.026     2581922.637 7   2011883.12321        20.250           1.313
  19960574.550    -4150252.635 8  -3233958.56521        29.250           1.344
  21455255.730     2589339.009 6   2017661.76622        19.250           1.563
  22656058.847    -8270323.285 6  -6349436.39821        16.750           0.594
 91  5 20 23 15 59.9990000  0  4G 2G13G 6G12
  22236935.237     2600741.543 7   2026547.16621        20.000           1.219
  19958796.136    -4159600.455 8  -3241242.56421        29.250           1.406
  21460082.183     2614699.715 6   2037423.31322        19.250           1.563
  22645180.237    -8327488.434 6  -6393980.62321        16.750           0.625
 91  5 20 23 16 14.9990000  0  4G 2G13G 6G12
  22240529.128     2619612.496 7   2041251.75521        20.250           1.250
  19957042.378    -4168813.014 8  -3248421.17221        28.750           1.375
  21464930.276     2640176.251 6   2057275.11922        18.750           1.625
  22634313.120    -8384606.254 6  -6438487.98021        17.000           0.500
 91  5 20 23 16 29.9990000  0  4G 2G13G 6G12
  22244128.065     2638524.632 7   2055988.44721        20.250           1.156
  19955313.089    -4177901.140 8  -3255502.81921        29.000           1.313
  21469798.409     2665757.903 6   2077208.83422        18.750           1.531
  22623449.995    -8441687.293 6  -6482966.68321        16.750           0.500
 91  5 20 23 16 44.9990000  0  4G 2G13G 6G12
  22247734.526     2657487.915 6   2070764.98921        19.750           1.156
  19953609.894    -4186855.255 8  -3262480.04021        29.500           1.344
  21474689.230     2691454.151 6   2097231.84222        19.000           1.531
  22612596.128    -8498721.384 6  -6527408.80021        16.250           0.531
 91  5 20 23 16 59.9990000  0  4G 2G13G 6G12
  22251352.651     2676500.559 7   2085579.99621        20.000           1.219
  19951930.698    -4195677.289 8  -3269354.34221        29.250           1.313
  21479600.011     2717263.249 6   2117342.79322        19.000           1.500
  22601751.284    -8555710.000 6  -6571815.48521        16.000           0.563
 91  5 20 23 17 14.9990000  0  4G 2G13G 6G12
  22254980.651     2695561.972 6   2100433.01321        19.750           1.219
  19950276.823    -4204367.860 8  -3276126.20421        29.500           1.219
  21484532.745     2743184.372 6   2137541.02422        19.250           1.500
  22590914.901    -8612653.318 6  -6616186.85721        15.750           0.656
 91  5 20 23 17 29.9990000  0  4G 2G13G 6G12
  22258616.894     2714671.714 6   2115323.67521        19.750           1.188
  19948648.331    -4212927.444 8  -3282795.99721        29.750           1.313
  21489484.839     2769217.147 6   2157826.26722        19.000           1.500
  22580087.480    -8669551.350 6  -6660522.94921        15.500           0.531
 91  5 20 23 17 44.9990000  0  4G 2G13G 6G12
  22262262.245     2733832.019 6   2130253.74921        19.500           1.250
  19947044.042    -4221354.249 8  -3289362.33021        29.750           1.281
  21494461.269     2795363.517 6   2178200.02321        19.000           1.406
  22569269.245    -8726401.526 6  -6704821.74821        15.750           0.563
 91  5 20 23 17 59.9990000  0  4G 2G13G 6G12
  22265918.815     2753039.529 6   2145220.60021        19.750           1.125
  19945465.183    -4229651.814 8  -3295827.95121        29.750           1.406
  21499457.440     2821619.842 6   2198659.45921        19.250           1.406
  22558459.495    -8783207.101 6  -6749085.79821        15.750           0.625
 91  5 20 23 18 14.9990000  0  4G 2G13G 6G12
  22269583.870     2772300.800 6   2160229.35221        19.750           1.094
  19943912.378    -4237813.709 8  -3302187.86121        29.500           1.281
  21504476.667     2847992.596 6   2219209.60821        19.250           1.438
  22547659.503    -8839961.201 6  -6793309.72221        15.750           0.656
 91  5 20 23 18 29.9990000  0  4G 2G13G 6G12
  22273258.948     2791615.505 6   2175279.72721        19.000           1.281
  19942384.073    -4245840.426 8  -3308442.43621        29.500           1.344
  21509516.300     2874481.254 6   2239850.08621        19.250           1.406
  22536868.878    -8896663.800 6  -6837493.52221        15.750           0.750
 91  5 20 23 18 44.9990000  0  4G 2G13G 6G12
  22276944.315     2810980.944 6   2190369.63921        19.000           1.125
  19940882.464    -4253734.894 8  -3314593.96121        30.250           1.250
  21514579.745     2901082.876 6   2260578.57921        19.500           1.375
  22526088.730    -8953317.354 6  -6881639.10621        15.750           0.750
 91  5 20 23 18 59.9990000  0  4G 2G13G 6G12
  22280638.667     2830403.509 6   2205504.06321        19.000           1.281
  19939406.761    -4261490.916 8  -3320637.59821        30.250           1.313
  21519665.362     2927803.827 6   2281400.05521        19.250           1.344
  22515317.792    -9009915.115 6  -6925741.21521        15.750           0.625
 91  5 20 23 19 14.9990000  0  4G 2G13G 6G12
  22284342.698     2849865.621 6   2220669.31321        19.000           1.188
  19937953.355    -4269126.485 8  -3326587.39121        29.250           1.344
  21524768.222     2954626.380 6   2302300.70621        19.000           1.344
  22504555.175    -9066474.266 6  -6969813.24021        16.500           0.688
 91  5 20 23 19 29.9990000  0  4G 2G13G 6G12
  22288055.761     2869366.857 6   2235865.03721        19.500           1.156
  19936522.612    -4276642.309 8  -3332443.87021        29.000           1.375
  21529890.355     2981549.800 6   2323279.95821        19.250           1.250
  22493799.573    -9122994.980 6  -7013855.31721        16.750           0.750
 91  5 20 23 19 44.9990000  0  4G 2G13G 6G12
  22291774.948     2888917.940 6   2251099.61521        19.000           1.125
  19935118.378    -4284027.439 8  -3338198.50821        29.250           1.375
  21535035.925     3008584.842 6   2344346.18121        19.000           1.406
  22483053.573    -9179466.072 6  -7057858.72221        16.750           0.750
 91  5 20 23 19 59.9990000  0  4G 2G13G 6G12
  22295507.128     2908520.795 6   2266374.52321        19.000           1.125
  19933738.105    -4291280.181 8  -3343849.98721        29.000           1.313
  21540201.534     3035733.218 6   2365500.71121        19.000           1.406
  22472318.112    -9235885.254 6  -7101821.68221        17.000           0.813
 91  5 20 23 20 14.9990000  0  4G 2G13G 6G12
  22299246.089     2928178.687 6   2281692.31621        18.500           1.156
  19932383.511    -4298397.784 8  -3349396.16321        29.250           1.281
  21545390.730     3062997.989 6   2386745.94021        19.000           1.375
  22461592.097    -9292249.066 6  -7145741.48921        17.000           0.844
 91  5 20 23 20 29.9990000  0  4G 2G13G 6G12
  22302999.292     2947896.691 6   2297056.94821        18.750           1.125
  19931055.909    -4305375.163 8  -3354833.07021        29.000           1.406
  21550601.151     3090383.924 6   2408085.58921        19.000           1.313
  22450877.284    -9348552.087 6  -7189613.92621        17.000           0.781
 91  5 20 23 20 44.9990000  0  4G 2G13G 6G12
  22306760.222     2967660.112 6   2312456.97521        18.750           1.094
  19929752.472    -4312227.196 8  -3360172.31321        29.250           1.375
  21555832.776     3117876.362 6   2429508.22021        19.000           1.219
  22440173.042    -9404808.683 6  -7233450.19421        17.250           0.844
 91  5 20 23 20 59.9990000  0  4G 2G13G 6G12
  22310532.542     2987487.275 6   2327906.67421        19.000           1.000
  19928474.909    -4318935.788 8  -3365399.78221        29.000           1.406
  21561089.222     3145493.389 6   2451027.93321        19.250           1.375
  22429478.550    -9461000.239 6  -7277235.77121        17.250           0.844
 91  5 20 23 21 14.9990000  0  4G 2G13G 6G12
  22314316.714     3007371.481 6   2343400.81421        18.750           1.063
  19927224.378    -4325507.844 8  -3370520.86121        28.750           1.313
  21566365.800     3173228.122 6   2472639.36621        19.000           1.250
  22418797.026    -9517133.117 6  -7320975.64021        17.750           0.750
 91  5 20 23 21 29.9990000  0  4G 2G13G 6G12
  22318109.956     3027310.308 6   2358937.52521        18.750           1.031
  19925999.370    -4331945.859 8  -3375537.48521        28.500           1.469
  21571666.347     3201078.063 6   2494340.57221        19.500           1.375
  22408127.573    -9573209.344 6  -7364671.35821        17.750           0.781
 91  5 20 23 21 44.9990000  0  4G 2G13G 6G12
  22321915.980     3047309.274 6   2374521.09421        18.500           1.063
  19924801.401    -4338244.442 8  -3380445.46821        29.000           1.344
  21576988.003     3229048.471 6   2516135.65221        19.500           1.250
  22397467.620    -9629223.231 6  -7408318.50221        17.500           0.844
 91  5 20 23 21 59.9990000  0  4G 2G13G 6G12
  22325732.808     3067367.375 6   2390150.73521        18.750           1.000
  19923629.253    -4344405.148 8  -3385246.00921        29.000           1.438
  21582335.503     3257138.064 6   2538023.59121        19.250           1.313
  22386819.769    -9685175.491 6  -7451917.61821        17.500           0.875
 91  5 20 23 22 14.9990000  0  4G 2G13G 6G12
  22329562.300     3087491.474 6   2405831.80521        19.000           1.063
  19922483.730    -4350421.169 8  -3389933.82021        28.750           1.250
  21587704.831     3285353.665 6   2560009.72821        19.250           1.250
  22376186.230    -9741058.763 6  -7495462.97721        17.500           0.875
 91  5 20 23 22 29.9990000  0  4G 2G13G 6G12
  22333404.230     3107673.250 6   2421557.81821        19.000           1.125
  19921365.347    -4356301.077 8  -3394515.55921        28.500           1.375
  21593095.628     3313686.725 6   2582087.38521        19.250           1.281
  22365562.769    -9796881.101 6  -7538960.85421        17.250           0.938
 91  5 20 23 22 44.9990000  0  4G 2G13G 6G12
  22337255.120     3127912.074 6   2437328.28821        19.000           1.094
  19920271.565    -4362045.585 8  -3398991.79221        28.500           1.375
  21598510.784     3342136.580 6   2604256.05321        19.250           1.250
  22354952.308    -9852642.695 6  -7582411.40421        17.750           0.875
 91  5 20 23 22 59.9990000  0  4G 2G13G 6G12
  22341117.151     3148213.145 6   2453147.25721        18.500           1.000
  19919205.855    -4367649.892 8  -3403358.78121        29.000           1.406
  21603946.659     3370708.116 6   2626519.54121        19.000           1.313
  22344353.550    -9908338.108 6  -7625810.38121        18.000           0.844
 91  5 20 23 23 14.9990000  0  4G 2G13G 6G12
  22344995.308     3168584.841 6   2469021.26421        18.250           1.094
  19918167.034    -4373105.887 8  -3407610.20421        28.750           1.406
  21609407.409     3399409.503 6   2648884.20621        18.750           1.219
  22333769.081    -9963958.705 6  -7669151.07321        18.000           0.906
 91  5 20 23 23 29.9990000  0  4G 2G13G 6G12
  22348883.909     3189018.300 6   2484943.39421        18.500           1.125
  19917155.151    -4378422.343 8  -3411752.89321        29.000           1.406
  21614894.784     3428231.699 6   2671343.01021        18.750           1.250
  22323197.769   -10019512.860 6  -7712439.98721        17.750           0.750
 91  5 20 23 23 44.9990000  0  4G 2G13G 6G12
  22352784.159     3209512.021 6   2500912.47921        18.500           1.063
  19916169.128    -4383600.897 8  -3415788.12221        28.500           1.344
  21620400.698     3457173.204 6   2693894.77521        19.000           1.281
  22312638.464   -10075001.732 6  -7755678.02321        17.750           0.813
 91  5 20 23 23 59.9990000  0  4G 2G13G 6G12
  22356691.933     3230059.325 6   2516923.32421        18.000           1.063
  19915208.683    -4388648.715 8  -3419721.48821        29.000           1.438
  21625929.394     3486226.904 6   2716533.96721        18.250           1.250
  22302091.105   -10130431.805 6  -7798870.24121        18.250           0.875
 91  5 20 23 24 14.9990000  0  4G 2G13G 6G12
  22360614.847     3250666.932 6   2532981.15421        18.250           1.125
  19914275.206    -4393559.475 8  -3423548.04421        29.000           1.344
  21631479.878     3515399.393 6   2739265.71421        18.250           1.281
  22291555.425   -10185796.250 6  -7842011.32421        18.500           0.844
 91  5 20 23 24 29.9990000  0  4G 2G13G 6G12
  22364548.526     3271337.066 6   2549087.69521        18.500           1.156
  19913367.058    -4398330.807 8  -3427265.96221        29.000           1.313
  21637053.651     3544692.731 6   2762091.64021        18.000           1.219
  22281032.394   -10241092.262 6  -7885099.08221        18.750           0.844
 91  5 20 23 24 44.9990000  0  4G 2G13G 6G12
  22368492.644     3292066.573 6   2565240.51621        18.000           1.125
  19912483.792    -4402966.024 8  -3430877.81121        28.500           1.313
  21642651.112     3574103.642 6   2785009.17521        17.750           1.313
  22270522.659   -10296322.675 6  -7928135.71921        19.000           0.844
 91  5 20 23 24 59.9990000  0  4G 2G13G 6G12
  22372447.409     3312848.232 6   2581433.96121        18.000           1.156
  19911626.581    -4407472.708 8  -3434389.51621        28.750           1.250
  21648268.925     3603624.699 6   2808012.53521        18.000           1.250
  22260023.573   -10351494.407 6  -7971126.63521        18.750           0.938
 91  5 20 23 25 14.9990000  0  4G 2G13G 6G12
  22376409.940     3333675.084 6   2597662.63821        18.000           1.156
  19910791.987    -4411858.032 8  -3437806.64821        28.750           1.375
  21653907.378     3633248.631 6   2831096.05621        18.000           1.313
  22249534.433   -10406614.147 6  -8014077.04221        18.750           0.781
 91  5 20 23 25 29.9990000  0  4G 2G13G 6G12
  22380383.792     3354552.297 6   2613930.54721        19.000           1.125
  19909982.308    -4416116.921 8  -3441125.25521        29.000           1.344
  21659565.456     3662980.719 6   2854263.85921        17.250           1.281
  22239056.761   -10461676.192 6  -8056982.48821        18.250           0.781
 91  5 20 23 25 44.9990000  0  4G 2G13G 6G12
  22384364.573     3375479.736 6   2630237.60921        18.500           1.125
  19909195.714    -4420249.510 8  -3444345.44822        29.000           1.500
  21665244.120     3692820.632 6   2877515.67821        18.000           1.188
  22228589.737   -10516680.253 6  -8099842.75221        18.500           0.719
 91  5 20 23 25 59.9990000  0  4G 2G13G 6G12
  22388357.511     3396454.354 6   2646581.41821        18.500           1.125
  19908431.519    -4424259.423 8  -3447470.05221        28.750           1.375
  21670943.972     3722765.024 6   2900848.91221        18.000           1.250
  22218133.456   -10571629.245 6  -8142660.10521        18.500           0.688
 91  5 20 23 26 14.9990000  0  4G 2G13G 6G12
  22392355.073     3417469.072 6   2662956.47721        17.750           1.156
  19907691.433    -4428154.031 8  -3450504.80721        29.250           1.438
  21676658.339     3752806.456 6   2924257.76021        17.750           1.188
  22207686.183   -10626529.999 6  -8185439.85821        18.750           0.813
 91  5 20 23 26 29.9990000  0  4G 2G13G 6G12
  22396364.003     3438528.338 6   2679366.24321        18.250           1.031
  19906972.620    -4431929.054 8  -3453446.37821        29.000           1.406
  21682393.464     3782949.386 6   2947745.70821        17.250           1.188
  22197248.308   -10681377.573 6  -8228178.18721        18.750           0.750
 91  5 20 23 26 44.9990000  0  4G 2G13G 6G12
  22400381.776     3459638.947 6   2695816.02421        18.750           1.000
  19906279.308    -4435577.745 8  -3456289.50921        29.250           1.344
  21688151.495     3813200.472 6   2971317.92421        17.250           1.250
  22186821.925   -10736164.784 6  -8270869.47721        18.500           0.719
 91  5 20 23 26 59.9990000  0  4G 2G13G 6G12
  22404405.612     3480789.658 6   2712297.04721        18.250           0.969
  19905605.956    -4439111.701 8  -3459043.23322        29.250           1.531
  21693925.519     3843548.047 6   2994965.32721        17.500           1.156
  22176406.409   -10790902.714 6  -8313522.36121        18.250           0.844
 91  5 20 23 27 14.9990000  0  4G 2G13G 6G12
  22408439.433     3501989.200 6   2728816.12721        17.750           0.969
  19904957.769    -4442522.403 8  -3461700.91921        29.250           1.438
  21699721.636     3874000.778 6   3018694.66921        17.500           1.156
  22166001.206   -10845582.242 6  -8356129.73821        18.250           0.750
 91  5 20 23 27 29.9990000  0  4G 2G13G 6G12
  22412481.425     3523232.356 6   2745369.18521        18.500           0.938
  19904330.175    -4445815.083 8  -3464266.63921        29.250           1.469
  21705535.276     3904553.139 6   3042501.65421        17.250           1.125
  22155605.214   -10900208.322 6  -8398695.47721        18.500           0.688
 91  5 20 23 27 44.9990000  0  4G 2G13G 6G12
  22416533.644     3544523.725 6   2761959.81821        18.250           0.969
  19903727.480    -4448985.503 8  -3466737.09222        29.500           1.500
  21711367.136     3935209.636 6   3066389.77621        17.000           1.063
  22145222.769   -10954775.954 6  -8441215.66421        19.000           0.719
 91  5 20 23 27 59.9990000  0  4G 2G13G 6G12
  22420593.542     3565854.990 6   2778581.52821        18.500           0.938
  19903146.026    -4452042.453 8  -3469119.12521        29.250           1.469
  21717220.792     3965961.732 6   3090352.39221        17.250           1.125
  22134849.183   -11009293.109 6  -8483696.52321        19.250           0.750
 91  5 20 23 28 14.9990000  0  4G 2G13G 6G12
  22424660.362     3587231.647 6   2795238.61421        17.750           0.938
  19902586.675    -4454980.315 8  -3471408.36921        29.500           1.344
  21723092.362     3996814.782 6   3114393.67221        17.000           1.156
  22124484.940   -11063753.865 6  -8526133.43821        19.250           0.750
 91  5 20 23 28 29.9990000  0  4G 2G13G 6G12
  22428738.933     3608658.161 6   2811934.54121        18.500           1.000
  19902051.792    -4457794.915 8  -3473601.55421        29.250           1.313
  21728981.690     4027773.061 6   3138516.94721        17.000           1.219
  22114133.269   -11118153.420 6  -8568522.66021        19.500           0.844
 91  5 20 23 28 44.9990000  0  4G 2G13G 6G12
  22432823.105     3630120.098 6   2828658.08121        18.000           0.938
  19901536.097    -4460501.041 8  -3475710.22121        29.500           1.469
  21734890.464     4058821.847 6   3162710.75121        17.000           1.156
  22103789.261   -11172505.984 6  -8610875.25021        19.500           0.844
 91  5 20 23 28 59.9990000  0  4G 2G13G 6G12
  22436915.128     3651622.252 6   2845412.95921        17.750           0.844
  19901042.519    -4463094.050 8  -3477730.74221        29.250           1.469
  21740816.855     4089965.879 6   3186978.77521        17.500           1.125
  22093455.956   -11226806.343 7  -8653187.18721        20.000           0.844
 91  5 20 23 29 14.9990000  0  4G 2G13G 6G12
  22441013.464     3673167.740 6   2862201.61021        17.500           0.813
  19900571.003    -4465571.014 8  -3479660.84421        29.500           1.438
  21746762.472     4121208.038 6   3211323.24521        17.000           1.156
  22083135.269   -11281051.100 7  -8695455.78021        20.250           0.750
 91  5 20 23 29 29.9990000  0  4G 2G13G 6G12
  22445123.105     3694761.784 6   2879028.08921        17.250           0.813
  19900122.862    -4467927.107 8  -3481496.75421        29.500           1.344
  21752727.815     4152553.303 6   3235748.06421        16.750           1.188
  22072824.011   -11335234.700 7  -8737676.73021        20.500           0.844
 91  5 20 23 29 44.9990000  0  4G 2G13G 6G12
  22449241.315     3716402.822 6   2895891.19121        16.750           0.844
  19899696.980    -4470164.164 8  -3483239.91421        29.500           1.406
  21758711.034     4183999.855 6   3260251.81521        16.750           1.094
  22062524.019   -11389358.415 7  -8779851.00821        20.750           0.813
 91  5 20 23 29 59.9980000  0  4G 2G13G 6G12
  22453367.967     3738085.304 6   2912786.57521        17.250           1.000
  19899293.670    -4472286.276 8  -3484893.50221        29.250           1.469
  21764714.740     4215541.266 6   3284829.47921        17.000           1.125
  22052235.107   -11443422.365 7  -8821978.72321        20.500           0.813
 91  5 20 23 30 14.9980000  0  4G 2G13G 6G12
  22457504.592     3759820.189 6   2929722.80121        18.000           0.938
  19898913.147    -4474285.648 8  -3486451.45222        29.000           1.531
  21770738.639     4247189.704 6   3309490.53821        17.000           1.125
  22041959.248   -11497425.181 7  -8864058.80021        20.500           0.875
 91  5 20 23 30 29.9980000  0  4G 2G13G 6G12
  22461647.397     3781596.446 6   2946691.26021        18.000           0.906
  19898553.967    -4476172.058 8  -3487921.37821        29.500           1.375
  21776777.545     4278933.411 6   3334225.83621        16.750           1.188
  22031693.162   -11551372.481 7  -8906095.61421        20.750           0.969
 91  5 20 23 30 44.9980000  0  4G 2G13G 6G12
  22465799.498     3803419.806 6   2963696.42121        17.250           0.875
  19898218.225    -4477940.067 8  -3489299.04421        29.250           1.469
  21782836.584     4310777.695 6   3359039.49721        16.500           1.125
  22021439.420   -11605258.313 7  -8948084.53021        20.750           0.938
 91  5 20 23 30 59.9980000  0  4G 2G13G 6G12
  22469962.670     3825288.738 6   2980737.09921        17.250           0.875
  19897903.006    -4479591.065 8  -3490585.53821        28.750           1.406
  21788915.123     4342720.985 6   3383930.31221        16.750           1.156
  22011196.686   -11659083.800 7  -8990026.42321        21.000           1.000
 91  5 20 23 31 14.9980000  0  4G 2G13G 6G12
  22474132.654     3847203.885 6   2997813.79421        17.000           0.906
  19897611.686    -4481124.910 8  -3491780.73621        28.750           1.375
  21795013.076     4374763.641 6   3408898.55021        16.750           1.125
  22000965.654   -11712847.993 7  -9031920.56021        21.250           0.969
 91  5 20 23 31 29.9980000  0  4G 2G13G 6G12
  22478312.553     3869175.954 6   3014934.83121        16.750           0.875
  19897344.647    -4482531.301 8  -3492876.62421        29.250           1.469
  21801134.076     4406916.112 6   3433952.36321        17.000           1.188
  21990748.881   -11766539.942 7  -9073758.40221        21.000           0.969
 91  5 20 23 31 44.9980000  0  4G 2G13G 6G12
  22482507.131     3891207.803 6   3032102.45421        17.000           0.875
  19897101.373    -4483807.711 8  -3493871.22521        29.000           1.438
  21807271.154     4439181.018 6   3459093.78521        16.500           1.188
  21980545.959   -11820156.467 7  -9115537.47721        20.750           1.031
 91  5 20 23 31 59.9980000  0  4G 2G13G 6G12
  22486708.311     3913298.604 6   3049316.02321        16.750           0.844
  19896883.264    -4484955.059 8  -3494765.26522        29.250           1.531
  21813433.092     4471557.290 6   3484321.99221        16.250           1.250
  21970355.998   -11873697.978 7  -9157258.09321        21.000           1.031
 91  5 20 23 32 14.9980000  0  4G 2G13G 6G12
  22490925.295     3935452.435 6   3066578.70721        17.500           0.875
  19896690.061    -4485969.575 8  -3495555.79521        29.000           1.438
  21819615.709     4504048.905 6   3509640.07921        16.250           1.094
  21960183.373   -11927160.043 7  -9198916.80121        21.000           1.063
 91  5 20 23 32 29.9980000  0  4G 2G13G 6G12
  22495151.506     3957657.551 6   3083881.34721        16.750           0.844
  19896519.654    -4486863.141 8  -3496252.08121        28.750           1.438
  21825820.318     4536643.875 6   3535038.68721        16.750           1.188
  21950022.686   -11980554.095 7  -9240522.51321        21.250           1.125
 91  5 20 23 32 44.9980000  0  4G 2G13G 6G12
  22499388.889     3979921.402 6   3101229.74521        17.500           0.750
  19896373.357    -4487628.256 8  -3496848.27021        28.500           1.469
  21832041.420     4569349.616 6   3560523.61921        16.500           1.156
  21939876.967   -12033872.155 7  -9282069.01421        21.250           0.969
 91  5 20 23 32 59.9980000  0  4G 2G13G 6G12
  22503635.100     4002244.413 6   3118624.25321        17.250           0.844
  19896254.873    -4488265.165 8  -3497344.56621        28.750           1.375
  21838285.053     4602166.222 6   3586094.94121        16.250           1.219
  21929745.139   -12087113.701 7  -9323555.88121        21.250           1.125
 91  5 20 23 33 14.9980000  0  4G 2G13G 6G12
  22507893.826     4024621.284 6   3136060.72321        16.500           0.750
  19896154.037    -4488778.943 8  -3497744.91021        29.000           1.469
  21844551.732     4635088.263 6   3611748.41521        16.750           1.250
  21919627.084   -12140283.537 7  -9364986.89621        21.250           1.000
 91  5 20 23 33 29.9980000  0  4G 2G13G 6G12
  22512162.709     4047061.035 6   3153546.20121        16.000           0.719
  19896080.654    -4489160.998 8  -3498042.62121        28.750           1.438
  21850838.904     4668124.432 6   3637490.81821        16.750           1.156
  21909523.693   -12193372.303 7  -9406354.73221        21.250           0.906
 91  5 20 23 33 44.9980000  0  4G 2G13G 6G12
  22516446.436     4069562.780 6   3171079.98921        16.000           0.750
  19896036.576    -4489412.707 8  -3498238.75421        28.750           1.438
  21857146.959     4701273.637 6   3663321.29821        16.750           1.125
  21899437.201   -12246380.663 7  -9447659.90921        21.000           0.938
 91  5 20 23 33 59.9980000  0  4G 2G13G 6G12
  22520740.670     4092129.540 6   3188664.42121        16.500           0.906
  19896010.217    -4489531.229 8                        28.500
  21863475.686     4734538.742 6   3689242.09021        16.500           1.125
  21889365.248   -12299305.074 7  -9488899.67421        21.500           1.063
 91  5 20 23 34 14.9980000  0  4G 2G13G 6G12
  22525047.584     4114759.665 6   3206298.23621        16.250           0.906
  19896013.107    -4489518.536 8                        28.500
  21869829.178     4767917.912 6   3715251.76521        16.500           1.156
  21879309.709   -12352146.965 7  -9530075.12921        21.250           1.031
 91  5 20 23 34 29.9980000  0  4G 2G13G 6G12
  22529365.623     4137447.849 6   3223977.29021        17.000           0.813
  19896040.459    -4489379.834 8                        28.500
  21876200.732     4801405.446 6   3741345.87721        16.500           1.063
  21869270.084   -12404911.294 7  -9571190.15321        21.250           0.938
 91  5 20 23 34 44.9980000  0  4G 2G13G 6G12
  22533692.818     4160201.836 6   3241707.63421        16.250           0.750
  19896091.170    -4489107.892 8                        28.500
  21882596.311     4835008.899 6   3767530.32121        17.000           1.156
  21859245.889   -12457590.136 7  -9612238.56121        21.000           0.906
 91  5 20 23 34 59.9980000  0  4G 2G13G 6G12
  22538035.787     4183017.694 6   3259486.16921        16.750           0.750
  19896168.998    -4488706.603 8  -3497688.54021        28.250           1.469
  21889013.436     4868724.152 6   3793801.86921        17.250           1.063
  21849236.592   -12510186.955 7  -9653223.06421        21.250           0.844
 91  5 20 23 35 14.9980000  0  4G 2G13G 6G12
  22542390.279     4205900.126 6   3277316.59121        17.500           0.813
  19896268.482    -4488171.463 8  -3497271.54921        28.000           1.469
  21895449.740     4902555.943 6   3820164.23421        17.000           1.094
  21839244.115   -12562696.497 7  -9694139.55521        21.000           0.875
 91  5 20 23 35 29.9980000  0  4G 2G13G 6G12
  22546756.373     4228843.973 6   3295194.86721        16.500           0.906
  19896398.287    -4487508.040 8  -3496754.59321        28.000           1.438
  21901908.592     4936498.638 6   3846613.02321        17.500           1.031
  21829268.287   -12615123.711 7  -9734991.90521        21.250           0.906
 91  5 20 23 35 44.9980000  0  4G 2G13G 6G12
  22551134.545     4251853.308 6   3313124.17321        16.500           0.781
  19896548.639    -4486712.391 7  -3496134.60621        27.750           1.469
  21908390.654     4970556.329 6   3873151.40121        17.500           1.031
  21819307.107   -12667463.959 7  -9775776.47821        21.500           0.844
 91  5 20 23 35 59.9980000  0  4G 2G13G 6G12
  22555526.131     4274926.874 6   3331103.52821        16.250           0.844
  19896725.920    -4485786.119 8  -3495412.84021        28.000           1.438
  21914892.842     5004727.456 6   3899778.17221        17.750           1.000
  21809363.982   -12719718.316 7  -9816494.12721        20.750           0.781
 91  5 20 23 36 14.9980000  0  4G 2G13G 6G12
  22559927.178     4298062.689 6   3349131.37121        16.750           0.719
  19896925.115    -4484731.427 8  -3494591.00321        28.250           1.375
  21921416.998     5039009.706 6   3926491.53721        17.250           1.000
  21799436.178   -12771888.310 7  -9857146.03221        20.250           0.906
 91  5 20 23 36 29.9980000  0  4G 2G13G 6G12
  22564344.506     4321264.376 6   3367210.55121        17.250           0.813
  19897150.076    -4483545.126 7  -3493666.61521        27.750           1.406
  21927960.865     5073406.476 6   3953294.15121        17.250           0.938
  21789524.951   -12823970.190 7  -9897729.28421        20.750           0.906
 91  5 20 23 36 44.9980000  0  4G 2G13G 6G12
  22568774.232     4344531.723 6   3385340.91621        17.500           0.844
  19897400.732    -4482227.507 7  -3492639.90221        27.750           1.469
  21934528.975     5107917.319 6   3980185.63521        17.500           0.906
  21779630.936   -12875963.875 7  -9938243.81821        20.750           0.906
 91  5 20 23 36 59.9980000  0  4G 2G13G 6G12
  22573209.232     4367851.132 6   3403511.82621        16.750           0.750
  19897673.928    -4480792.379 8  -3491521.61021        28.000           1.469
  21941115.326     5142528.583 6   4007155.38121        17.500           0.969
  21769751.842   -12927882.400 7  -9978699.77921        20.500           0.844
 91  5 20 23 37 14.9980000  0  4G 2G13G 6G12
  22577656.998     4391227.281 6   3421726.95821        16.250           0.750
  19897970.928    -4479235.373 8  -3490308.36521        28.250           1.406
  21947722.404     5177244.707 6   4034206.82221        17.750           0.938
  21759885.959   -12979720.742 7 -10019093.26321        20.500           0.781
 91  5 20 23 37 29.9980000  0  4G 2G13G 6G12
  22582117.717     4414668.774 6   3439993.01121        16.000           0.750
  19898292.334    -4477548.191 8  -3488993.68021        28.750           1.438
  21954349.725     5212073.908 6   4061346.38021        17.250           0.875
  21750039.506   -13031470.031 7 -10059417.35421        21.000           0.875
 91  5 20 23 37 44.9980000  0  4G 2G13G 6G12
  22586592.123     4438179.338 6   3458312.86921        16.000           0.813
  19898638.615    -4475727.168 8  -3487574.70121        29.000           1.469
  21960999.162     5247019.834 6   4088576.89221        16.750           0.906
  21740210.186   -13083126.133 7 -10099668.83721        21.500           0.844
 91  5 20 23 37 59.9980000  0  4G 2G13G 6G12
  22591075.873     4461748.623 6   3476678.50321        15.000           0.781
  19899009.318    -4473783.037 8  -3486059.79621        29.250           1.406
  21967669.537     5282071.779 6   4115890.02621        16.750           0.844
  21730396.170   -13134699.125 7 -10139855.55321        21.500           0.875
 91  5 20 23 38 14.9980000  0  4G 2G13G 6G12
  22595574.537     4485386.251 6   3495097.38221        15.250           0.781
  19899403.514    -4471706.288 8  -3484441.55121        29.000           1.469
  21974363.232     5317239.302 6   4143293.20921        17.250           0.906
  21720599.357   -13186178.861 7 -10179969.59821        21.750           0.813
 91  5 20 23 38 29.9980000  0  4G 2G13G 6G12
  22600085.076     4509084.350 6   3513563.37221        15.750           0.813
  19899823.459    -4469505.321 8  -3482726.51921        29.250           1.344
  21981074.600     5352514.147 6   4170780.02121        16.750           0.813
  21710820.475   -13237572.990 7 -10220016.94721        22.000           0.938
 91  5 20 23 38 44.9980000  0  4G 2G13G 6G12
  22604605.850     4532844.553 6   3532077.75921        15.500           0.750
  19900266.139    -4467178.506 8  -3480913.41521        29.250           1.438
  21987807.842     5387897.926 6   4198351.71721        16.250           0.906
  21701056.490   -13288879.449 7 -10259995.97921        22.250           1.000
 91  5 20 23 38 59.9980000  0  4G 2G13G 6G12
  22609142.053     4556669.808 6   3550642.82121        15.500           0.688
  19900733.943    -4464723.169 8  -3479000.16321        29.250           1.469
  21994561.756     5423393.319 6   4226010.38521        16.250           0.875
  21691310.295   -13340094.862 7 -10299904.06621        22.000           1.031
 91  5 20 23 39 14.9980000  0  4G 2G13G 6G12
  22613686.584     4580553.652 6   3569253.56621        15.500           0.688
  19901222.529    -4462145.925 8  -3476991.92421        28.750           1.438
  22001339.014     5458993.606 6   4253750.77821        16.750           0.844
  21681579.295   -13391225.280 7 -10339745.91721        22.000           1.031
 91  5 20 23 39 29.9980000  0  4G 2G13G 6G12
  22618242.537     4604501.721 6   3587914.35321        14.750           0.750
  19901737.857    -4459441.524 8  -3474884.60021        29.250           1.344
  22008132.818     5494704.112 6   4281577.07121        16.750           0.781
  21671867.670   -13442264.905 7 -10379517.02821        22.000           0.969
 91  5 20 23 39 44.9980000  0  4G 2G13G 6G12
  22622807.795     4628505.819 6   3606618.78021        14.750           0.750
  19902275.381    -4456618.284 8  -3472684.67321        29.250           1.469
  22014947.975     5530516.519 6   4309482.76021        16.750           0.781
  21662170.928   -13493221.496 7 -10419223.42721        21.750           1.125
 91  5 20 23 39 59.9980000  0  4G 2G13G 6G12
  22627389.162     4652572.608 6   3625372.05421        15.000           0.813
  19902836.420    -4453669.774 8  -3470387.13421        29.250           1.406
  22021784.717     5566437.303 6   4337472.90521        16.500           0.750
  21652492.217   -13544087.950 7 -10458859.58621        22.000           1.188
 91  5 20 23 40 14.9980000  0  4G 2G13G 6G12
  22631982.693     4676700.822 6   3644173.20621        15.250           0.813
  19903420.561    -4450597.739 8  -3467993.33921        29.000           1.469
  22028639.529     5602464.838 6   4365546.22521        15.750           0.750
  21642829.029   -13594865.474 7 -10498426.46221        22.250           1.031
 91  5 20 23 40 29.9980000  0  4G 2G13G 6G12
  22636581.889     4700886.719 6   3663019.30221        14.750           0.750
  19904027.522    -4447405.879 8  -3465506.17521        29.000           1.438
  22035515.670     5638595.097 6   4393699.58821        16.000           0.781
  21633183.115   -13645557.228 7 -10537926.49921        22.250           1.125
 91  5 20 23 40 44.9980000  0  4G 2G13G 6G12
  22641199.389     4725137.489 6   3681915.93521        15.000           0.844
  19904659.303    -4444087.552 8  -3462920.46722        29.000           1.500
  22042412.529     5674835.221 6   4421938.57121        16.500           0.813
  21623553.959   -13696155.819 7 -10577353.93821        22.500           1.156
 91  5 20 23 40 59.9980000  0  4G 2G13G 6G12
  22645823.412     4749446.381 6   3700857.86321        14.750           0.656
  19905313.912    -4440649.500 8  -3460241.46321        28.750           1.469
  22049327.748     5711178.139 6   4450257.64121        16.500           0.781
  21613941.131   -13746667.538 7 -10616713.67921        22.500           1.281
 91  5 20 23 41 14.9980000  0  4G 2G13G 6G12
  22650461.897     4773822.296 6   3719852.02921        14.250           0.750
  19905992.756    -4437083.035 8  -3457462.40322        29.250           1.531
  22056264.998     5747632.718 6   4478663.71921        16.250           0.719
  21604348.193   -13797083.052 7 -10655998.46621        23.000           1.219
 91  5 20 23 41 29.9980000  0  4G 2G13G 6G12
  22655111.779     4798253.450 6   3738889.23321        14.250           0.844
  19906692.326    -4433400.430 8  -3454592.83621        29.000           1.469
  22063219.506     5784186.729 6   4507147.28321        16.250           0.844
  21594769.920   -13847413.841 7 -10695217.22321        22.500           1.219
 91  5 20 23 41 44.9980000  0  4G 2G13G 6G12
  22659770.287     4822739.418 6   3757969.15221        14.750           0.719
  19907415.397    -4429602.383 8  -3451633.31722        29.000           1.500
  22070195.943     5820839.487 6   4535707.79721        16.000           0.844
  21585207.873   -13897660.046 7 -10734370.07321        22.500           1.219
 91  5 20 23 41 59.9980000  0  4G 2G13G 6G12
  22664442.428     4847283.606 6   3777094.43521        14.750           0.813
  19908161.451    -4425685.733 8  -3448581.38621        29.250           1.469
  22077190.131     5857594.321 6   4564347.83821        15.750           0.750
  21575663.326   -13947817.795 7 -10773453.99721        22.500           1.188
 91  5 20 23 42 14.9980000  0  4G 2G13G 6G12
  22669125.256     4871883.036 6   3796262.75921        15.250           0.656
  19908929.475    -4421653.578 8  -3445439.44622        29.250           1.531
  22084203.279     5894448.028 6   4593064.92421        15.500           0.844
  21566135.764   -13997889.695 7 -10812471.02821        22.750           1.250
 91  5 20 23 42 29.9980000  0  4G 2G13G 6G12
  22673812.576     4896533.366 6   3815470.74021        13.500           0.781
  19909716.561    -4417510.456 8  -3442211.03821        29.250           1.469
  22091234.943     5931395.832 6   4621855.34121        15.750           0.813
  21556623.170   -14047879.953 7 -10851424.43821        22.750           1.250
 91  5 20 23 42 44.9980000  0  4G 2G13G 6G12
  22678514.787     4921234.826 6   3834718.56621        14.250           0.750
  19910525.459    -4413256.463 8  -3438896.24221        28.750           1.438
  22098281.357     5968437.757 6   4650719.09121        15.750           0.813
  21547125.459   -14097787.962 7 -10890313.75421        22.500           1.281
 91  5 20 23 42 59.9980000  0  4G 2G13G 6G12
  22683227.850     4945987.761 6   3854006.50821        15.250           0.688
  19911356.256    -4408891.417 8  -3435494.90622        28.750           1.531
  22105349.482     6005574.022 6   4679656.35621        15.500           0.813
  21537643.303   -14147612.852 7 -10929138.30721        22.250           1.313
 91  5 20 23 43 14.9980000  0  4G 2G13G 6G12
  22687949.584     4970794.225 6   3873336.16021        15.500           0.688
  19912208.467    -4404413.417 8  -3432005.55722        28.750           1.531
  22112435.584     6042806.541 6   4708668.62921        15.500           0.844
  21528178.092   -14197352.196 7 -10967896.19221        22.250           1.219
 91  5 20 23 43 29.9980000  0  4G 2G13G 6G12
  22692677.881     4995656.009 6   3892708.92921        15.000           0.750
  19913083.209    -4399821.165 8  -3428427.17922        29.000           1.563
  22119538.022     6080136.622 6   4737756.91421        15.000           0.813
  21518730.904   -14247003.975 7 -11006585.85021        22.500           1.344
 91  5 20 23 43 44.9980000  0  4G 2G13G 6G12
  22697419.475     5020566.735 6   3912119.81121        15.500           0.656
  19913977.256    -4395121.299 8  -3424764.94422        28.500           1.563
  22126659.295     6117557.874 6   4766916.24521        15.250           0.781
  21509297.568   -14296574.070 7 -11045211.86521        22.500           1.344
 91  5 20 23 43 59.9980000  0  4G 2G13G 6G12
  22702169.232     5045529.684 6   3931571.39221        15.250           0.625
  19914893.334    -4390310.773 8  -3421016.48222        28.500           1.594
  22133797.553     6155073.336 6   4796148.98921        15.000           0.750
  21499880.498   -14346058.768 7 -11083771.34021        22.000           1.219
 91  5 20 23 44 14.9980000  0  4G 2G13G 6G12
  22706928.568     5070549.711 6   3951067.45621        14.000           0.719
  19915830.529    -4385384.995 8  -3417178.21022        28.750           1.531
  22140955.514     6192687.526 6   4825458.66621        15.000           0.781
  21490482.115   -14395452.993 7 -11122260.30221        22.000           1.313
 91  5 20 23 44 29.9980000  0  4G 2G13G 6G12
  22711698.287     5095625.190 6   3970606.72021        14.750           0.781
  19916788.865    -4380345.697 8  -3413251.48722        28.750           1.656
  22148133.217     6230398.655 6   4854843.87621        15.000           0.844
  21481098.951   -14444757.952 7 -11160679.71021        22.250           1.219
 91  5 20 23 44 44.9980000  0  4G 2G13G 6G12
  22716482.678     5120761.768 6   3990193.60021        14.750           0.688
  19917771.006    -4375187.729 8  -3409232.28622        28.750           1.625
  22155327.240     6268212.001 6   4884308.73221        14.750           0.688
  21471734.584   -14493967.651 7 -11199024.89421        22.500           1.219
 91  5 20 23 44 59.9980000  0  4G 2G13G 6G12
  22721275.147     5145941.701 6   4009814.26821        14.250           0.750
  19918772.248    -4369928.770 8  -3405134.39922        28.750           1.625
  22162538.545     6306109.682 6   4913839.30421        14.500           0.781
  21462385.318   -14543099.409 7 -11237309.34721        22.750           1.313
 91  5 20 23 45 14.9980000  0  4G 2G13G 6G12
  22726078.811     5171175.998 6   4029477.28621        14.750           0.625
  19919793.584    -4364558.085 8  -3400949.44922        28.750           1.563
  22169771.420     6344102.604 6   4943444.09221        14.500           0.656
  21453051.943   -14592141.834 7 -11275524.18821        22.750           1.219
 91  5 20 23 45 29.9980000  0  4G 2G13G 6G12
  22730886.061     5196451.419 6   4049172.36421        14.000           0.656
  19920834.342    -4359089.307 8  -3396688.06722        29.000           1.594
  22177013.639     6382177.166 6   4973112.48821        13.750           0.750
  21443733.186   -14641107.954 7 -11313679.57621        22.750           1.313
 91  5 20 23 45 44.9980000  0  4G 2G13G 6G12
  22735704.576     5221770.301 6   4068901.30121        13.750           0.719
  19921893.928    -4353520.295 8  -3392348.57822        29.000           1.656
  22184276.490     6420335.524 6   5002846.18121        13.750           0.656
  21434431.615   -14689994.885 7 -11351773.25721        23.250           1.219
 91  5 20 23 45 59.9980000  0  4G 2G13G 6G12
  22740531.084     5247133.868 6   4088665.06121        13.500           0.719
  19922972.998    -4347849.877 8  -3387930.07122        28.750           1.656
  22191553.615     6458578.616 6   5032645.90421        14.250           0.719
  21425144.162   -14738801.038 7 -11389803.99521        23.500           1.344
 91  5 20 23 46 14.9980000  0  4G 2G13G 6G12
  22745365.529     5272540.128 6   4108462.10421        13.250           0.656
  19924070.037    -4342080.773 8  -3383434.66122        28.250           1.625
  22198848.209     6496903.987 6   5062509.74621        14.500           0.844
  21415870.975   -14787528.252 7 -11427773.21921        23.750           1.219
 91  5 20 23 46 29.9980000  0  4G 2G13G 6G12
  22750208.873     5297987.588 6   4128291.22521        13.750           0.719
  19925186.834    -4336214.463 8  -3378863.50822        28.000           1.594
  22206155.287     6535310.156 6   5092436.52521        14.250           0.750
  21406613.256   -14836177.550 7 -11465681.73621        23.250           1.188
 91  5 20 23 46 44.9980000  0  4G 2G13G 6G12
  22755060.389     5323471.569 6   4148148.80821        14.500           0.750
  19926321.303    -4330255.829 7  -3374220.42422        27.750           1.656
  22213477.045     6573792.176 6   5122422.42521        14.250           0.656
  21397369.748   -14884753.208 7 -11503532.86221        23.250           1.313
 91  5 20 23 46 59.9980000  0  4G 2G13G 6G12
  22759913.865     5348991.146 6   4168034.13421        14.000           0.781
  19927472.662    -4324206.057 8  -3369506.30522        28.250           1.656
  22220814.678     6612348.906 6   5152466.53521        14.000           0.625
  21388140.225   -14933255.820 7 -11541327.08721        23.750           1.156
 91  5 20 23 47 14.9980000  0  4G 2G13G 6G12
  22764778.029     5374546.590 6   4187947.40421        14.250           0.750
  19928640.779    -4318065.235 7  -3364721.24022        27.750           1.563
  22228166.654     6650980.227 6   5182568.77821        14.250           0.625
  21378924.131   -14981684.868 7 -11579063.97921        24.250           1.281
 91  5 20 23 47 29.9980000  0  4G 2G13G 6G12
  22769648.186     5400139.841 6   4207890.12221        13.500           0.688
  19929826.092    -4311831.657 7  -3359863.90822        27.750           1.656
  22235533.318     6689687.927 6   5212730.52921        14.250           0.688
  21369723.162   -15030037.871 7 -11616741.62221        24.750           1.375
 91  5 20 23 47 44.9980000  0  4G 2G13G 6G12
  22774527.022     5425776.664 6   4227866.78521        13.750           0.594
  19931032.147    -4305499.632 8  -3354929.85922        28.000           1.563
  22242914.436     6728477.601 6   5242956.16121        14.250           0.656
  21360537.873   -15078308.822 7 -11654355.32121        24.750           1.250
 91  5 20 23 47 59.9980000  0  4G 2G13G 6G12
  22779414.248     5451458.009 6   4247878.17921        14.000           0.563
  19932256.084    -4299068.367 8  -3349918.47922        28.000           1.594
  22250312.217     6767349.985 6   5273246.23921        14.250           0.719
  21351367.670   -15126496.222 7 -11691903.91921        24.750           1.219
 91  5 20 23 48 14.9980000  0  4G 2G13G 6G12
  22784308.990     5477178.031 6   4267919.70021        13.500           0.563
  19933496.186    -4292544.425 8  -3344834.88622        28.000           1.625
  22257723.498     6806298.928 6   5303595.96921        14.250           0.656
  21342212.615   -15174605.679 7 -11729391.79021        25.250           1.344
 91  5 20 23 48 29.9980000  0  4G 2G13G 6G12
  22789211.123     5502938.163 6   4287992.47621        13.000           0.500
  19934756.022    -4285926.421 7  -3339677.99522        27.750           1.563
  22265148.803     6845325.493 6   5334006.19221        14.000           0.563
  21333072.639   -15222635.500 7 -11766817.59521        25.500           1.344
 91  5 20 23 48 44.9980000  0  4G 2G13G 6G12
  22794124.193     5528746.932 6   4308103.13621        14.000           0.625
  19936034.553    -4279206.254 7  -3334441.49922        27.500           1.531
  22272593.631     6884438.114 6   5364483.46021        14.250           0.625
  21323950.693   -15270576.672 7 -11804174.33121        25.500           1.375
 91  5 20 23 48 59.9980000  0  4G 2G13G 6G12
  22799043.045     5554603.629 6   4328251.15221        13.250           0.656
  19937332.670    -4272384.575 7  -3329125.90422        27.500           1.656
  22280052.686     6923635.870 6   5395027.07521        14.500           0.781
  21314844.295   -15318429.583 7 -11841462.29021        25.750           1.344
 91  5 20 23 49 14.9980000  0  4G 2G13G 6G12
  22803968.404     5580500.243 6   4348430.27021        12.250           0.750
  19938649.279    -4265469.756 8  -3323737.73422        28.250           1.594
  22287525.967     6962910.488 6   5425630.57221        14.250           0.656
  21305753.490   -15366201.886 7 -11878687.43621        26.000           1.375
 91  5 20 23 49 29.9980000  0  4G 2G13G 6G12
  22808905.732     5606438.995 6   4368642.20321        12.250           0.625
  19939983.475    -4258459.866 7  -3318275.47722        27.750           1.625
  22295015.279     7002263.915 6   5456295.49121        14.250           0.781
  21296677.725   -15413890.951 7 -11915847.71521        26.000           1.469
 91  5 20 23 49 44.9980000  0  4G 2G13G 6G12
  22813850.428     5632423.697 6   4388889.94721        12.500           0.563
  19941335.279    -4251351.537 8  -3312736.52022        28.000           1.656
  22302519.881     7041699.767 6   5487024.63221        14.500           0.656
  21287619.514   -15461492.585 7 -11952939.87221        26.000           1.438
 91  5 20 23 49 59.9980000  0  4G 2G13G 6G12
  22818806.693     5658457.679 6   4409176.09721        13.500           0.563
  19942707.568    -4244141.573 8  -3307118.36422        28.000           1.563
  22310038.686     7081220.966 6   5517820.27621        14.250           0.688
  21278577.803   -15509003.236 7 -11989961.13422        26.000           1.531
 91  5 20 23 50 14.9980000  0  4G 2G13G 6G12
  22823769.779     5684544.737 6   4429503.63021        13.500           0.469
  19944099.772    -4236826.450 8  -3301418.26822        28.250           1.625
  22317578.029     7120831.182 6   5548685.28521        14.250           0.625
  21269556.022   -15556418.700 7 -12026908.21921        26.000           1.469
 91  5 20 23 50 29.9980000  0  4G 2G13G 6G12
  22828743.740     5710681.707 6   4449870.05621        13.000           0.563
  19945511.061    -4229409.240 8  -3295638.62622        28.500           1.594
  22325131.748     7160527.120 6   5579617.09121        14.500           0.750
  21260550.592   -15603741.637 7 -12063783.21021        25.750           1.438
 91  5 20 23 50 44.9980000  0  4G 2G13G 6G12
  22833723.803     5736861.426 6   4470269.75121        12.250           0.625
  19946941.240    -4221897.743 8  -3289785.51222        28.500           1.563
  22332701.576     7200301.105 6   5610609.71221        14.750           0.719
  21251560.897   -15650979.030 7 -12100591.54021        25.750           1.469
 91  5 20 23 50 59.9980000  0  4G 2G13G 6G12
  22838717.943     5763087.777 6   4490705.80721        12.500           0.563
  19948388.529    -4214288.343 8  -3283856.10922        28.250           1.625
  22340284.990     7240156.869 6   5641666.05521        14.500           0.688
  21242589.647   -15698126.611 7 -12137329.88321        25.500           1.438
 91  5 20 23 51 14.9980000  0  4G 2G13G 6G12
  22843716.920     5789366.590 6   4511182.74221        12.500           0.625
  19949856.131    -4206575.324 8  -3277845.96722        28.250           1.594
  22347883.389     7280100.055 6   5672790.52021        14.000           0.750
  21233636.443   -15745177.988 7 -12173993.26121        25.750           1.469
 91  5 20 23 51 29.9980000  0  4G 2G13G 6G12
  22848728.342     5815697.507 6   4531700.25621        12.500           0.656
  19951343.881    -4198759.282 8  -3271755.54522        28.750           1.563
  22355501.350     7320130.062 6   5703982.64121        13.750           0.781
  21224700.576   -15792133.255 7 -12210581.75722        25.500           1.594
 91  5 20 23 51 44.9980000  0  4G 2G13G 6G12
  22853746.920     5842077.758 6   4552256.22421        12.500           0.563
  19952849.482    -4190843.196 8  -3265587.16922        28.500           1.500
  22363137.100     7360243.814 6   5735240.01421        14.250           0.844
  21215783.264   -15838994.740 7 -12247097.17222        25.500           1.563
 91  5 20 23 51 59.9980000  0  4G 2G13G 6G12
  22858777.170     5868504.401 6   4572848.36421        12.500           0.469
  19954374.772    -4182830.338 8  -3259343.39422        28.750           1.625
  22370785.873     7400438.151 6   5766560.18021        14.500           0.719
  21206883.162   -15885765.058 7 -12283541.53722        25.500           1.563
 91  5 20 23 52 14.9980000  0  4G 2G13G 6G12
  22863816.529     5894983.846 6   4593481.63521        12.750           0.438
  19955919.186    -4174714.640 8  -3253019.47322        28.750           1.594
  22378450.982     7440719.189 6   5797947.89521        14.750           0.656
  21198001.701   -15932437.426 7 -12319909.58822        26.000           1.531
 91  5 20 23 52 29.9980000  0  4G 2G13G 6G12
  22868864.162     5921511.196 6   4614152.24121        12.750           0.344
  19957481.131    -4166501.077 8  -3246619.30022        28.250           1.500
  22386132.506     7481081.964 6   5829399.32221        14.500           0.813
  21189138.545   -15979016.221 7 -12356204.71622        25.750           1.594
 91  5 20 23 52 44.9980000  0  4G 2G13G 6G12
  22873922.037     5948087.388 6   4634860.92221        12.250           0.313
  19959063.451    -4158189.156 8  -3240142.48522        29.000           1.500
  22393827.115     7521526.994 6   5860914.82121        14.250           0.719
  21180292.709   -16025500.324 7 -12392426.05922        25.250           1.750
 91  5 20 23 52 59.9980000  0  4G 2G13G 6G12
  22878988.709     5974720.177 5   4655613.70821        11.750           0.344
  19960665.600    -4149771.231 8  -3233583.06122        29.250           1.594
  22401541.654     7562061.895 6   5892500.36621        14.250           0.594
  21171465.779   -16071881.454 7 -12428567.16522        25.250           1.563
 91  5 20 23 53 14.9980000  0  4G 2G13G 6G12
  22884064.318     6001393.538 5   4676398.07021        11.750           0.469
  19962285.279    -4141263.490 8  -3226953.65922        29.000           1.500
  22409267.576     7602670.245 6   5924143.14421        14.000           0.719
  21162656.764   -16118175.551 7 -12464640.45622        25.500           1.594
 91  5 20 23 53 29.9980000  0  4G 2G13G 6G12
  22889151.061     6028118.949 6   4697222.98821        12.250           0.344
  19963923.639    -4132654.641 8  -3220245.47222        29.000           1.594
  22417012.022     7643363.438 6   5955852.03421        14.000           0.750
  21153866.693   -16164370.683 7 -12500636.62922        25.500           1.531
 91  5 20 23 53 44.9980000  0  4G 2G13G 6G12
  22894246.725     6054898.764 6   4718090.32321        12.250           0.531
  19965580.537    -4123942.781 8  -3213457.01421        28.750           1.406
  22424773.529     7684143.409 6   5987628.52521        13.750           0.719
  21145094.990   -16210464.108 7 -12536553.55222        25.250           1.500
 91  5 20 23 53 59.9980000  0  4G 2G13G 6G12
  22899353.522     6081731.965 6   4738999.22921        12.750           0.500
  19967258.068    -4115129.026 8  -3206589.15521        29.250           1.469
  22432549.670     7725009.071 6   6019471.79521        13.250           0.688
  21136344.350   -16256456.278 7 -12572391.57322        25.500           1.500
 91  5 20 23 54 14.9980000  0  4G 2G13G 6G12
  22904470.350     6108615.333 6   4759947.25921        12.500           0.531
  19968953.936    -4106216.904 8  -3199644.65622        29.500           1.594
  22440343.232     7765956.956 6   6051379.13921        13.250           0.719
  21127608.850   -16302350.096 7 -12608152.95622        25.250           1.563
 91  5 20 23 54 29.9980000  0  4G 2G13G 6G12
  22909593.982     6135551.910 6   4780936.73521        12.000           0.531
  19970669.373    -4097204.021 8  -3192621.63421        29.500           1.469
  22448150.522     7806989.792 6   6083352.67721        13.000           0.656
  21118896.412   -16348142.252 7 -12643835.12122        25.500           1.531
 91  5 20 23 54 44.9980000  0  4G 2G13G 6G12
  22914730.029     6162541.327 6   4801967.37021        12.000           0.375
  19972403.451    -4088090.639 8  -3185520.30022        29.250           1.563
  22455973.561     7848107.052 6   6115391.98721        12.750           0.719
  21110200.857   -16393832.668 7 -12679438.01622        26.000           1.625
 91  5 20 23 54 59.9980000  0  4G 2G13G 6G12
  22919877.373     6189583.132 5   4823038.86921        11.500           0.344
  19974156.647    -4078877.462 8  -3178341.20822        29.500           1.531
  22463813.139     7889307.848 6   6147496.40321        12.750           0.656
  21101526.068   -16439421.536 7 -12714961.77622        25.500           1.500
 91  5 20 23 55 14.9980000  0  4G 2G13G 6G12
  22925028.928     6216670.565 5   4844145.90821        11.000           0.438
  19975926.826    -4069571.764 8  -3171090.02022        29.500           1.531
  22471669.967     7930585.129 6   6179660.41821        12.750           0.625
  21092869.029   -16484915.433 7 -12750411.53421        25.750           1.406
 91  5 20 23 55 29.9980000  0  4G 2G13G 6G12
  22930196.998     6243808.138 6   4865292.01621        12.500           0.375
  19977716.990    -4060169.163 8  -3163763.32722        29.500           1.563
  22479540.951     7971943.184 6   6211887.38221        12.750           0.594
  21084230.693   -16530309.286 7 -12785783.33622        25.500           1.500
 91  5 20 23 55 44.9980000  0  4G 2G13G 6G12
  22935368.467     6270989.434 6   4886472.20421        12.750           0.375
  19979522.865    -4050676.298 8  -3156366.29422        29.500           1.625
  22487422.998     8013375.474 6   6244172.17121        12.500           0.625
  21075610.647   -16575609.229 7 -12821081.96322        25.500           1.594
